Time,TemperatureF,DewpointF,PressureIn,WindDirection,WindDirectionDegrees,WindSpeedMPH,WindSpeedGustMPH,Humidity,HourlyPrecipIn,Conditions,Clouds,dailyrainin,SoftwareType,DateUTC
2013-05-23 00:01:00,44.2,41.1,29.87,NW,315,0.0,0.7,89,0.00,,,0.00,WUHU216HW,2013-05-23 07:01:00,
2013-05-23 00:06:00,44.0,40.9,29.87,NNW,338,0.0,0.7,89,0.00,,,0.00,WUHU216HW,2013-05-23 07:06:00,
2013-05-23 00:11:00,43.9,40.8,29.87,NNW,338,0.0,0.4,89,0.00,,,0.00,WUHU216HW,2013-05-23 07:11:00,
2013-05-23 00:16:00,44.0,41.2,29.86,NNW,338,0.4,0.4,90,0.00,,,0.00,WUHU216HW,2013-05-23 07:16:00,
2013-05-23 00:21:00,43.9,41.1,29.87,NNW,338,0.0,0.4,90,0.00,,,0.00,WUHU216HW,2013-05-23 07:21:00,
2013-05-23 00:26:00,43.9,41.1,29.87,NW,315,1.1,1.1,90,0.00,,,0.00,WUHU216HW,2013-05-23 07:26:00,
2013-05-23 00:31:00,43.5,40.7,29.86,NW,315,0.4,1.1,90,0.00,,,0.00,WUHU216HW,2013-05-23 07:31:00,
2013-05-23 00:36:00,43.5,40.7,29.86,NNW,338,0.0,1.1,90,0.00,,,0.00,WUHU216HW,2013-05-23 07:36:00,
2013-05-23 00:41:00,43.5,40.7,29.86,SSE,158,0.4,0.7,90,0.00,,,0.00,WUHU216HW,2013-05-23 07:41:00,
2013-05-23 00:46:00,43.5,40.7,29.86,North,0,0.9,2.5,90,0.00,,,0.00,WUHU216HW,2013-05-23 07:46:00,
2013-05-23 00:51:00,43.7,40.9,29.87,North,0,0.4,2.5,90,0.00,,,0.00,WUHU216HW,2013-05-23 07:51:00,
2013-05-23 00:56:00,43.7,40.9,29.87,NW,315,0.4,1.1,90,0.00,,,0.00,WUHU216HW,2013-05-23 07:56:00,
2013-05-23 01:01:00,43.5,40.7,29.87,NW,315,0.4,0.7,90,0.00,,,0.00,WUHU216HW,2013-05-23 08:01:00,
2013-05-23 01:06:00,43.3,40.5,29.87,NW,315,0.2,0.7,90,0.00,,,0.00,WUHU216HW,2013-05-23 08:06:00,
2013-05-23 01:11:00,43.3,40.5,29.87,NNW,338,0.0,0.7,90,0.00,,,0.00,WUHU216HW,2013-05-23 08:11:00,
2013-05-23 01:16:00,43.3,40.5,29.87,North,0,0.2,0.7,90,0.00,,,0.00,WUHU216HW,2013-05-23 08:16:00,
2013-05-23 01:21:00,43.5,40.7,29.87,ENE,68,0.0,1.1,90,0.00,,,0.00,WUHU216HW,2013-05-23 08:21:00,
2013-05-23 01:26:00,43.5,40.7,29.88,North,0,0.0,1.1,90,0.00,,,0.00,WUHU216HW,2013-05-23 08:26:00,
2013-05-23 01:31:00,43.5,40.7,29.88,North,0,0.0,0.9,90,0.00,,,0.00,WUHU216HW,2013-05-23 08:31:00,
2013-05-23 01:36:00,43.7,40.9,29.88,North,0,0.4,1.8,90,0.00,,,0.00,WUHU216HW,2013-05-23 08:36:00,
2013-05-23 01:41:00,43.5,40.7,29.88,North,0,0.4,1.8,90,0.00,,,0.00,WUHU216HW,2013-05-23 08:41:00,
2013-05-23 01:46:00,43.5,40.7,29.88,SSE,158,1.6,1.6,90,0.00,,,0.00,WUHU216HW,2013-05-23 08:46:00,
2013-05-23 01:51:00,43.5,40.7,29.88,ENE,68,0.0,1.6,90,0.00,,,0.00,WUHU216HW,2013-05-23 08:51:00,
2013-05-23 01:56:00,43.3,40.2,29.88,NNE,23,0.0,1.6,89,0.00,,,0.00,WUHU216HW,2013-05-23 08:56:00,
2013-05-23 02:01:00,43.0,39.9,29.88,NNE,23,0.0,0.0,89,0.00,,,0.00,WUHU216HW,2013-05-23 09:01:00,
2013-05-23 02:06:00,43.0,39.9,29.88,ESE,113,0.4,0.4,89,0.00,,,0.00,WUHU216HW,2013-05-23 09:06:00,
2013-05-23 02:11:00,43.0,39.9,29.88,NNE,23,0.0,0.4,89,0.00,,,0.00,WUHU216HW,2013-05-23 09:11:00,
2013-05-23 02:16:00,43.1,40.0,29.88,North,0,0.0,0.4,89,0.00,,,0.00,WUHU216HW,2013-05-23 09:16:00,
2013-05-23 02:21:00,43.0,39.9,29.88,North,0,0.0,0.4,89,0.00,,,0.00,WUHU216HW,2013-05-23 09:21:00,
2013-05-23 02:26:00,43.1,40.3,29.88,NE,45,0.7,0.7,90,0.00,,,0.00,WUHU216HW,2013-05-23 09:26:00,
2013-05-23 02:31:00,43.1,40.3,29.88,NE,45,0.0,0.7,90,0.00,,,0.00,WUHU216HW,2013-05-23 09:31:00,
2013-05-23 02:36:00,43.3,40.5,29.88,NNE,23,0.0,0.7,90,0.00,,,0.00,WUHU216HW,2013-05-23 09:36:00,
2013-05-23 02:41:00,43.1,40.3,29.89,NNE,23,0.0,0.4,90,0.00,,,0.00,WUHU216HW,2013-05-23 09:41:00,
2013-05-23 02:46:00,43.1,40.0,29.88,NNE,23,0.0,0.2,89,0.00,,,0.00,WUHU216HW,2013-05-23 09:46:00,
2013-05-23 02:51:00,43.0,39.9,29.89,NNE,23,0.2,0.4,89,0.00,,,0.00,WUHU216HW,2013-05-23 09:51:00,
2013-05-23 02:56:00,43.0,39.9,29.89,NNE,23,0.0,0.4,89,0.00,,,0.00,WUHU216HW,2013-05-23 09:56:00,
2013-05-23 03:01:00,43.1,40.3,29.88,NNE,23,0.0,0.4,90,0.00,,,0.00,WUHU216HW,2013-05-23 10:01:00,
2013-05-23 03:06:00,43.1,40.3,29.88,NNE,23,0.0,0.2,90,0.00,,,0.00,WUHU216HW,2013-05-23 10:06:00,
2013-05-23 03:11:00,43.1,40.3,29.89,NNE,23,0.0,0.2,90,0.00,,,0.00,WUHU216HW,2013-05-23 10:11:00,
2013-05-23 03:16:00,43.1,40.3,29.89,NNE,23,0.0,0.2,90,0.00,,,0.00,WUHU216HW,2013-05-23 10:16:00,
2013-05-23 03:21:00,43.3,40.5,29.89,NNE,23,0.0,0.2,90,0.00,,,0.00,WUHU216HW,2013-05-23 10:21:00,
2013-05-23 03:26:00,43.3,40.5,29.89,SW,225,1.8,2.0,90,0.00,,,0.00,WUHU216HW,2013-05-23 10:26:00,
2013-05-23 03:31:00,43.5,41.0,29.89,SW,225,0.7,2.5,91,0.00,,,0.00,WUHU216HW,2013-05-23 10:31:00,
2013-05-23 03:36:00,43.5,40.7,29.89,SW,225,0.0,2.5,90,0.00,,,0.00,WUHU216HW,2013-05-23 10:36:00,
2013-05-23 03:41:00,43.5,40.7,29.89,North,0,0.0,0.7,90,0.00,,,0.00,WUHU216HW,2013-05-23 10:41:00,
2013-05-23 03:46:00,43.5,40.7,29.89,SE,135,0.4,1.1,90,0.00,,,0.00,WUHU216HW,2013-05-23 10:46:00,
2013-05-23 03:51:00,43.5,40.7,29.89,North,0,0.0,1.1,90,0.00,,,0.00,WUHU216HW,2013-05-23 10:51:00,
2013-05-23 03:56:00,43.5,40.7,29.89,North,0,0.0,0.7,90,0.00,,,0.00,WUHU216HW,2013-05-23 10:56:00,
2013-05-23 04:01:00,43.5,40.7,29.89,North,0,0.0,0.2,90,0.00,,,0.00,WUHU216HW,2013-05-23 11:01:00,
2013-05-23 04:06:00,43.5,40.7,29.89,NNE,23,0.2,0.7,90,0.00,,,0.00,WUHU216HW,2013-05-23 11:06:00,
2013-05-23 04:11:00,43.5,40.7,29.89,NNE,23,0.0,0.7,90,0.00,,,0.00,WUHU216HW,2013-05-23 11:11:00,
2013-05-23 04:16:00,43.5,40.7,29.89,ENE,68,0.0,0.4,90,0.00,,,0.00,WUHU216HW,2013-05-23 11:16:00,
2013-05-23 04:21:00,43.5,40.7,29.89,NE,45,0.0,0.4,90,0.00,,,0.00,WUHU216HW,2013-05-23 11:21:00,
2013-05-23 04:26:00,43.3,40.5,29.89,NNE,23,0.4,0.4,90,0.00,,,0.00,WUHU216HW,2013-05-23 11:26:00,
2013-05-23 04:31:00,43.1,40.3,29.89,NNE,23,0.4,0.4,90,0.00,,,0.00,WUHU216HW,2013-05-23 11:31:00,
2013-05-23 04:36:00,43.1,40.3,29.89,NNE,23,0.0,0.4,90,0.00,,,0.00,WUHU216HW,2013-05-23 11:36:00,
2013-05-23 04:41:00,43.0,39.9,29.89,NNE,23,0.0,0.4,89,0.00,,,0.00,WUHU216HW,2013-05-23 11:41:00,
2013-05-23 04:46:00,43.1,40.0,29.89,NNE,23,0.0,0.4,89,0.00,,,0.00,WUHU216HW,2013-05-23 11:46:00,
2013-05-23 04:51:00,43.0,39.9,29.89,North,0,0.2,0.4,89,0.00,,,0.00,WUHU216HW,2013-05-23 11:51:00,
2013-05-23 04:56:00,42.8,39.7,29.89,NNW,338,0.4,0.7,89,0.00,,,0.00,WUHU216HW,2013-05-23 11:56:00,
2013-05-23 05:01:00,42.8,40.0,29.89,NNW,338,0.0,0.7,90,0.00,,,0.00,WUHU216HW,2013-05-23 12:01:00,
2013-05-23 05:06:00,42.6,39.8,29.89,NNW,338,0.0,0.4,90,0.00,,,0.00,WUHU216HW,2013-05-23 12:06:00,
2013-05-23 05:11:00,42.8,40.0,29.89,NNW,338,0.0,0.2,90,0.00,,,0.00,WUHU216HW,2013-05-23 12:11:00,
2013-05-23 05:16:00,42.8,40.0,29.89,NNW,338,0.0,0.2,90,0.00,,,0.00,WUHU216HW,2013-05-23 12:16:00,
2013-05-23 05:21:00,42.8,40.0,29.89,NNW,338,0.4,0.7,90,0.00,,,0.00,WUHU216HW,2013-05-23 12:21:00,
2013-05-23 05:26:00,43.0,40.2,29.89,NNW,338,0.2,0.7,90,0.00,,,0.00,WUHU216HW,2013-05-23 12:26:00,
2013-05-23 05:31:00,42.8,40.0,29.89,NNW,338,0.0,0.4,90,0.00,,,0.00,WUHU216HW,2013-05-23 12:31:00,
2013-05-23 05:36:00,42.8,40.0,29.89,WSW,248,0.9,0.9,90,0.00,,,0.00,WUHU216HW,2013-05-23 12:36:00,
2013-05-23 05:41:00,43.0,40.2,29.89,West,270,0.4,0.9,90,0.00,,,0.00,WUHU216HW,2013-05-23 12:41:00,
2013-05-23 05:46:00,43.0,40.2,29.89,SW,225,1.1,1.1,90,0.00,,,0.00,WUHU216HW,2013-05-23 12:46:00,
2013-05-23 05:51:00,43.1,40.6,29.90,SW,225,0.7,2.2,91,0.00,,,0.00,WUHU216HW,2013-05-23 12:51:00,
2013-05-23 05:56:00,43.3,40.8,29.90,East,90,1.8,2.7,91,0.00,,,0.00,WUHU216HW,2013-05-23 12:56:00,
2013-05-23 06:01:00,43.3,40.8,29.90,SE,135,0.0,2.7,91,0.00,,,0.00,WUHU216HW,2013-05-23 13:01:00,
2013-05-23 06:06:00,43.3,40.5,29.90,ESE,113,1.6,2.2,90,0.00,,,0.00,WUHU216HW,2013-05-23 13:06:00,
2013-05-23 06:11:00,43.5,40.7,29.90,NNE,23,0.4,2.2,90,0.00,,,0.00,WUHU216HW,2013-05-23 13:11:00,
2013-05-23 06:16:00,43.5,40.7,29.90,NNE,23,1.1,1.6,90,0.00,,,0.00,WUHU216HW,2013-05-23 13:16:00,
2013-05-23 06:21:00,43.3,40.5,29.90,NNE,23,0.0,1.1,90,0.00,,,0.00,WUHU216HW,2013-05-23 13:21:00,
2013-05-23 06:26:00,43.1,40.3,29.90,NNE,23,0.2,1.1,90,0.00,,,0.00,WUHU216HW,2013-05-23 13:26:00,
2013-05-23 06:31:00,43.0,39.9,29.90,NNE,23,0.0,0.4,89,0.00,,,0.00,WUHU216HW,2013-05-23 13:31:00,
2013-05-23 06:36:00,43.0,39.9,29.90,NNE,23,0.4,0.4,89,0.00,,,0.00,WUHU216HW,2013-05-23 13:36:00,
2013-05-23 06:41:00,43.0,40.2,29.91,NNE,23,0.0,0.4,90,0.00,,,0.00,WUHU216HW,2013-05-23 13:41:00,
2013-05-23 06:46:00,43.0,40.2,29.91,NNE,23,0.0,0.4,90,0.00,,,0.00,WUHU216HW,2013-05-23 13:46:00,
2013-05-23 06:51:00,43.1,40.6,29.91,NNE,23,0.0,0.7,91,0.00,,,0.00,WUHU216HW,2013-05-23 13:51:00,
2013-05-23 06:56:00,43.3,40.8,29.91,NNE,23,0.0,0.7,91,0.00,,,0.00,WUHU216HW,2013-05-23 13:56:00,
2013-05-23 07:01:00,43.3,40.8,29.91,ESE,113,0.7,2.2,91,0.00,,,0.00,WUHU216HW,2013-05-23 14:01:00,
2013-05-23 07:06:00,43.5,41.0,29.91,SE,135,0.0,2.2,91,0.00,,,0.00,WUHU216HW,2013-05-23 14:06:00,
2013-05-23 07:11:00,43.5,41.0,29.91,WSW,248,0.0,0.9,91,0.00,,,0.00,WUHU216HW,2013-05-23 14:11:00,
2013-05-23 07:16:00,43.7,41.2,29.92,SSW,203,1.6,3.6,91,0.00,,,0.00,WUHU216HW,2013-05-23 14:16:00,
2013-05-23 07:21:00,43.7,41.2,29.92,SSW,203,4.0,4.0,91,0.00,,,0.00,WUHU216HW,2013-05-23 14:21:00,
2013-05-23 07:26:00,43.9,41.4,29.92,South,180,1.1,4.0,91,0.00,,,0.00,WUHU216HW,2013-05-23 14:26:00,
2013-05-23 07:31:00,43.9,41.4,29.92,SW,225,1.8,4.0,91,0.00,,,0.00,WUHU216HW,2013-05-23 14:31:00,
2013-05-23 07:36:00,44.0,41.5,29.92,SW,225,1.8,3.1,91,0.00,,,0.00,WUHU216HW,2013-05-23 14:36:00,
2013-05-23 07:41:00,44.2,41.7,29.92,South,180,1.6,4.0,91,0.00,,,0.00,WUHU216HW,2013-05-23 14:41:00,
2013-05-23 07:46:00,44.2,41.7,29.92,SW,225,2.5,4.0,91,0.00,,,0.00,WUHU216HW,2013-05-23 14:46:00,
2013-05-23 07:51:00,44.2,41.4,29.92,SSW,203,3.8,3.8,90,0.01,,,0.01,WUHU216HW,2013-05-23 14:51:00,
2013-05-23 07:56:00,44.4,41.6,29.93,SW,225,1.6,3.8,90,0.01,,,0.01,WUHU216HW,2013-05-23 14:56:00,
2013-05-23 08:01:00,44.4,41.6,29.93,SW,225,1.3,3.8,90,0.01,,,0.01,WUHU216HW,2013-05-23 15:01:00,
2013-05-23 08:06:00,44.6,41.8,29.93,SW,225,0.4,3.4,90,0.01,,,0.01,WUHU216HW,2013-05-23 15:06:00,
2013-05-23 08:11:00,44.6,41.8,29.93,SW,225,0.7,2.7,90,0.01,,,0.01,WUHU216HW,2013-05-23 15:11:00,
2013-05-23 08:17:00,44.6,41.8,29.93,SW,225,0.7,2.7,90,0.01,,,0.01,WUHU216HW,2013-05-23 15:17:00,
2013-05-23 08:22:00,44.6,41.8,29.93,SE,135,0.9,2.5,90,0.01,,,0.01,WUHU216HW,2013-05-23 15:22:00,
2013-05-23 08:27:00,44.6,41.8,29.94,East,90,1.1,2.9,90,0.01,,,0.01,WUHU216HW,2013-05-23 15:27:00,
2013-05-23 08:32:00,44.6,41.8,29.94,SE,135,3.1,3.6,90,0.01,,,0.01,WUHU216HW,2013-05-23 15:32:00,
2013-05-23 08:37:00,44.6,41.8,29.94,SE,135,2.5,3.6,90,0.01,,,0.01,WUHU216HW,2013-05-23 15:37:00,
2013-05-23 08:42:00,44.6,41.8,29.94,SSE,158,0.4,3.1,90,0.01,,,0.01,WUHU216HW,2013-05-23 15:42:00,
2013-05-23 08:47:00,44.6,41.8,29.94,ESE,113,1.3,2.7,90,0.00,,,0.01,WUHU216HW,2013-05-23 15:47:00,
2013-05-23 08:52:00,44.8,42.0,29.94,ESE,113,1.8,2.7,90,0.00,,,0.01,WUHU216HW,2013-05-23 15:52:00,
2013-05-23 08:57:00,44.8,42.0,29.94,SE,135,1.3,2.0,90,0.00,,,0.01,WUHU216HW,2013-05-23 15:57:00,
2013-05-23 09:02:00,44.9,42.1,29.94,East,90,0.7,3.6,90,0.00,,,0.01,WUHU216HW,2013-05-23 16:02:00,
2013-05-23 09:07:00,45.1,42.3,29.94,SE,135,1.1,3.6,90,0.00,,,0.01,WUHU216HW,2013-05-23 16:07:00,
2013-05-23 09:12:00,45.1,42.0,29.94,ESE,113,0.4,2.0,89,0.00,,,0.01,WUHU216HW,2013-05-23 16:12:00,
2013-05-23 09:17:00,45.3,42.2,29.94,East,90,1.3,2.2,89,0.00,,,0.01,WUHU216HW,2013-05-23 16:17:00,
2013-05-23 09:22:00,45.3,42.2,29.94,ESE,113,1.1,2.5,89,0.00,,,0.01,WUHU216HW,2013-05-23 16:22:00,
2013-05-23 09:27:00,45.5,42.4,29.94,SE,135,3.4,3.4,89,0.00,,,0.01,WUHU216HW,2013-05-23 16:27:00,
2013-05-23 09:32:00,45.7,42.6,29.94,ESE,113,1.8,3.4,89,0.00,,,0.01,WUHU216HW,2013-05-23 16:32:00,
2013-05-23 09:37:00,45.7,42.6,29.94,East,90,0.4,3.4,89,0.00,,,0.01,WUHU216HW,2013-05-23 16:37:00,
2013-05-23 09:42:00,45.7,42.6,29.93,ESE,113,0.4,1.8,89,0.00,,,0.01,WUHU216HW,2013-05-23 16:42:00,
2013-05-23 09:47:00,45.8,42.4,29.93,ESE,113,1.3,1.6,88,0.00,,,0.01,WUHU216HW,2013-05-23 16:47:00,
2013-05-23 09:52:00,46.0,42.6,29.93,ESE,113,0.0,1.6,88,0.00,,,0.01,WUHU216HW,2013-05-23 16:52:00,
2013-05-23 09:57:00,46.0,42.6,29.93,SSW,203,0.4,2.0,88,0.00,,,0.01,WUHU216HW,2013-05-23 16:57:00,
2013-05-23 10:02:00,46.2,42.8,29.93,ESE,113,0.2,2.9,88,0.00,,,0.01,WUHU216HW,2013-05-23 17:02:00,
2013-05-23 10:07:00,46.4,43.0,29.93,ESE,113,1.8,2.9,88,0.00,,,0.01,WUHU216HW,2013-05-23 17:07:00,
2013-05-23 10:12:00,46.7,43.3,29.93,South,180,1.6,2.0,88,0.00,,,0.01,WUHU216HW,2013-05-23 17:12:00,
2013-05-23 10:17:00,46.7,43.3,29.93,SW,225,2.2,4.7,88,0.00,,,0.01,WUHU216HW,2013-05-23 17:17:00,
2013-05-23 10:22:00,46.9,43.2,29.93,South,180,1.1,4.7,87,0.00,,,0.01,WUHU216HW,2013-05-23 17:22:00,
2013-05-23 10:27:00,47.1,43.4,29.93,SW,225,1.8,3.6,87,0.00,,,0.01,WUHU216HW,2013-05-23 17:27:00,
2013-05-23 10:32:00,47.1,43.4,29.93,SW,225,4.5,4.5,87,0.00,,,0.01,WUHU216HW,2013-05-23 17:32:00,
2013-05-23 10:37:00,47.5,43.5,29.92,SW,225,1.3,4.5,86,0.00,,,0.01,WUHU216HW,2013-05-23 17:37:00,
2013-05-23 10:42:00,47.5,43.5,29.93,SSW,203,1.1,4.5,86,0.00,,,0.01,WUHU216HW,2013-05-23 17:42:00,
2013-05-23 10:47:00,47.6,43.3,29.93,SW,225,2.5,3.4,85,0.00,,,0.01,WUHU216HW,2013-05-23 17:47:00,
2013-05-23 10:52:00,47.6,43.3,29.92,SW,225,4.3,4.3,85,0.00,,,0.01,WUHU216HW,2013-05-23 17:52:00,
2013-05-23 10:57:00,47.8,43.2,29.92,SW,225,3.4,4.5,84,0.00,,,0.01,WUHU216HW,2013-05-23 17:57:00,
2013-05-23 11:02:00,48.0,43.4,29.92,SW,225,4.3,5.4,84,0.00,,,0.01,WUHU216HW,2013-05-23 18:02:00,
2013-05-23 11:07:00,48.0,43.1,29.92,SSW,203,0.4,5.4,83,0.00,,,0.01,WUHU216HW,2013-05-23 18:07:00,
2013-05-23 11:12:00,48.2,43.6,29.92,SW,225,3.4,4.9,84,0.00,,,0.01,WUHU216HW,2013-05-23 18:12:00,
2013-05-23 11:17:00,48.2,43.3,29.92,SW,225,5.1,5.1,83,0.00,,,0.01,WUHU216HW,2013-05-23 18:17:00,
2013-05-23 11:22:00,48.2,43.3,29.93,SSW,203,3.1,5.1,83,0.00,,,0.01,WUHU216HW,2013-05-23 18:22:00,
2013-05-23 11:27:00,48.4,43.5,29.93,SW,225,1.8,6.5,83,0.00,,,0.01,WUHU216HW,2013-05-23 18:27:00,
2013-05-23 11:32:00,48.5,43.6,29.92,SW,225,2.2,6.5,83,0.00,,,0.01,WUHU216HW,2013-05-23 18:32:00,
2013-05-23 11:37:00,48.5,43.3,29.93,SW,225,4.0,6.0,82,0.00,,,0.01,WUHU216HW,2013-05-23 18:37:00,
2013-05-23 11:42:00,48.5,43.3,29.93,SW,225,4.0,7.2,82,0.00,,,0.01,WUHU216HW,2013-05-23 18:42:00,
2013-05-23 11:47:00,48.5,43.3,29.93,SW,225,3.4,7.2,82,0.00,,,0.01,WUHU216HW,2013-05-23 18:47:00,
2013-05-23 11:52:00,48.5,43.3,29.93,SW,225,0.9,5.8,82,0.00,,,0.01,WUHU216HW,2013-05-23 18:52:00,
2013-05-23 11:57:00,48.5,43.3,29.93,SW,225,2.9,5.8,82,0.00,,,0.01,WUHU216HW,2013-05-23 18:57:00,
2013-05-23 12:02:00,48.5,43.3,29.92,SW,225,3.4,6.3,82,0.00,,,0.01,WUHU216HW,2013-05-23 19:02:00,
2013-05-23 12:07:00,48.5,43.3,29.93,SW,225,6.0,6.9,82,0.00,,,0.01,WUHU216HW,2013-05-23 19:07:00,
2013-05-23 12:12:00,48.5,43.3,29.92,SW,225,4.0,6.9,82,0.00,,,0.01,WUHU216HW,2013-05-23 19:12:00,
2013-05-23 12:17:00,48.5,43.3,29.92,SW,225,4.9,6.5,82,0.00,,,0.01,WUHU216HW,2013-05-23 19:17:00,
2013-05-23 12:22:00,48.5,43.3,29.92,SW,225,3.8,4.9,82,0.00,,,0.01,WUHU216HW,2013-05-23 19:22:00,
2013-05-23 12:27:00,48.7,43.8,29.92,SSW,203,2.2,4.9,83,0.00,,,0.01,WUHU216HW,2013-05-23 19:27:00,
2013-05-23 12:32:00,48.9,44.0,29.91,SW,225,1.6,3.8,83,0.00,,,0.01,WUHU216HW,2013-05-23 19:32:00,
2013-05-23 12:37:00,49.3,44.1,29.91,SW,225,3.4,4.0,82,0.00,,,0.01,WUHU216HW,2013-05-23 19:37:00,
2013-05-23 12:42:00,49.3,44.1,29.91,NW,315,0.4,4.0,82,0.00,,,0.01,WUHU216HW,2013-05-23 19:42:00,
2013-05-23 12:47:00,49.6,44.0,29.91,South,180,0.7,4.5,81,0.00,,,0.01,WUHU216HW,2013-05-23 19:47:00,
2013-05-23 12:52:00,49.8,44.2,29.91,SE,135,1.3,4.5,81,0.00,,,0.01,WUHU216HW,2013-05-23 19:52:00,
2013-05-23 12:57:00,50.0,44.1,29.91,SW,225,2.7,3.6,80,0.00,,,0.01,WUHU216HW,2013-05-23 19:57:00,
2013-05-23 13:02:00,50.3,44.4,29.91,SSW,203,2.7,4.5,80,0.00,,,0.01,WUHU216HW,2013-05-23 20:02:00,
2013-05-23 13:07:00,50.5,44.6,29.92,WSW,248,6.5,8.1,80,0.00,,,0.01,WUHU216HW,2013-05-23 20:07:00,
2013-05-23 13:12:00,50.7,44.8,29.92,ESE,113,0.9,8.1,80,0.00,,,0.01,WUHU216HW,2013-05-23 20:12:00,
2013-05-23 13:17:00,50.5,44.6,29.91,SW,225,1.8,6.5,80,0.00,,,0.01,WUHU216HW,2013-05-23 20:17:00,
2013-05-23 13:22:00,50.3,44.7,29.91,West,270,1.1,6.0,81,0.00,,,0.01,WUHU216HW,2013-05-23 20:22:00,
2013-05-23 13:27:00,50.0,44.4,29.91,SSW,203,2.0,2.5,81,0.00,,,0.01,WUHU216HW,2013-05-23 20:27:00,
2013-05-23 13:32:00,50.0,44.7,29.91,SSE,158,2.7,3.6,82,0.00,,,0.01,WUHU216HW,2013-05-23 20:32:00,
2013-05-23 13:37:00,50.0,45.0,29.92,South,180,2.7,4.0,83,0.00,,,0.01,WUHU216HW,2013-05-23 20:37:00,
2013-05-23 13:42:00,50.0,45.0,29.92,South,180,2.9,4.0,83,0.00,,,0.01,WUHU216HW,2013-05-23 20:42:00,
2013-05-23 13:47:00,50.0,45.0,29.92,SW,225,3.1,4.7,83,0.00,,,0.01,WUHU216HW,2013-05-23 20:47:00,
2013-05-23 13:52:00,50.0,45.0,29.92,SW,225,3.8,4.9,83,0.00,,,0.01,WUHU216HW,2013-05-23 20:52:00,
2013-05-23 13:57:00,50.0,45.0,29.92,WSW,248,1.3,4.9,83,0.00,,,0.01,WUHU216HW,2013-05-23 20:57:00,
2013-05-23 14:02:00,50.0,45.0,29.92,SE,135,0.4,4.0,83,0.00,,,0.01,WUHU216HW,2013-05-23 21:02:00,
2013-05-23 14:07:00,50.2,45.2,29.92,SSW,203,0.0,3.4,83,0.00,,,0.01,WUHU216HW,2013-05-23 21:07:00,
2013-05-23 14:12:00,50.2,45.6,29.91,North,0,0.4,3.4,84,0.00,,,0.01,WUHU216HW,2013-05-23 21:12:00,
2013-05-23 14:17:00,50.2,45.9,29.92,SE,135,2.5,2.5,85,0.00,,,0.01,WUHU216HW,2013-05-23 21:17:00,
2013-05-23 14:22:00,50.2,45.9,29.92,ESE,113,4.0,4.9,85,0.00,,,0.01,WUHU216HW,2013-05-23 21:22:00,
2013-05-23 14:27:00,50.3,46.0,29.93,ESE,113,2.2,5.1,85,0.00,,,0.01,WUHU216HW,2013-05-23 21:27:00,
2013-05-23 14:32:00,50.5,45.8,29.93,SE,135,1.1,5.1,84,0.00,,,0.01,WUHU216HW,2013-05-23 21:32:00,
2013-05-23 14:37:00,50.5,45.8,29.93,SE,135,0.4,4.0,84,0.00,,,0.01,WUHU216HW,2013-05-23 21:37:00,
2013-05-23 14:42:00,50.7,46.0,29.93,South,180,4.7,5.8,84,0.00,,,0.01,WUHU216HW,2013-05-23 21:42:00,
2013-05-23 14:47:00,50.9,45.9,29.93,South,180,7.4,7.4,83,0.00,,,0.01,WUHU216HW,2013-05-23 21:47:00,
2013-05-23 14:52:00,50.9,45.6,29.93,SSW,203,10.7,10.7,82,0.00,,,0.01,WUHU216HW,2013-05-23 21:52:00,
2013-05-23 14:57:00,50.7,44.8,29.94,SW,225,10.5,11.4,80,0.00,,,0.01,WUHU216HW,2013-05-23 21:57:00,
2013-05-23 15:02:00,50.2,44.6,29.93,SSW,203,4.3,11.4,81,0.00,,,0.01,WUHU216HW,2013-05-23 22:02:00,
2013-05-23 15:07:00,50.0,44.7,29.94,SW,225,8.7,10.5,82,0.00,,,0.01,WUHU216HW,2013-05-23 22:07:00,
2013-05-23 15:12:00,49.8,44.5,29.94,SW,225,10.5,10.7,82,0.00,,,0.01,WUHU216HW,2013-05-23 22:12:00,
2013-05-23 15:17:00,49.6,44.0,29.95,SSW,203,7.6,11.6,81,0.00,,,0.01,WUHU216HW,2013-05-23 22:17:00,
2013-05-23 15:22:00,49.4,43.8,29.94,SW,225,10.7,11.6,81,0.00,,,0.01,WUHU216HW,2013-05-23 22:22:00,
2013-05-23 15:27:00,49.3,43.4,29.95,SW,225,10.1,11.4,80,0.00,,,0.01,WUHU216HW,2013-05-23 22:27:00,
2013-05-23 15:32:00,49.3,43.4,29.95,WSW,248,4.7,11.4,80,0.00,,,0.01,WUHU216HW,2013-05-23 22:32:00,
2013-05-23 15:37:00,49.1,43.5,29.95,WSW,248,6.0,10.1,81,0.00,,,0.01,WUHU216HW,2013-05-23 22:37:00,
2013-05-23 15:42:00,49.3,44.1,29.95,SW,225,4.0,6.5,82,0.00,,,0.01,WUHU216HW,2013-05-23 22:42:00,
2013-05-23 15:45:00,49.1,43.9,29.95,SSW,203,5.4,6.3,82,0.00,,,0.01,WUHU216HW,2013-05-23 22:45:00,
2013-05-23 15:46:00,49.3,44.1,29.95,SW,225,3.4,6.3,82,0.00,,,0.01,WUHU216HW,2013-05-23 22:46:00,
2013-05-23 15:47:00,49.3,44.1,29.95,SSE,158,3.4,5.8,82,0.00,,,0.01,WUHU216HW,2013-05-23 22:47:00,
2013-05-23 15:49:00,49.3,44.1,29.96,South,180,2.0,8.1,82,0.00,,,0.01,WUHU216HW,2013-05-23 22:49:00,
2013-05-23 15:50:00,49.1,43.9,29.95,WSW,248,7.6,8.1,82,0.00,,,0.01,WUHU216HW,2013-05-23 22:50:00,
2013-05-23 15:51:00,49.3,43.7,29.96,South,180,1.8,8.1,81,0.00,,,0.01,WUHU216HW,2013-05-23 22:51:00,
2013-05-23 15:52:00,49.3,43.7,29.96,SSW,203,6.7,8.1,81,0.00,,,0.01,WUHU216HW,2013-05-23 22:52:00,
2013-05-23 15:54:00,49.3,43.4,29.96,SW,225,6.9,8.1,80,0.00,,,0.01,WUHU216HW,2013-05-23 22:54:00,
2013-05-23 15:55:00,49.3,43.4,29.96,SW,225,5.4,8.1,80,0.00,,,0.01,WUHU216HW,2013-05-23 22:55:00,
2013-05-23 15:56:00,49.1,43.2,29.96,SSW,203,1.6,8.1,80,0.00,,,0.01,WUHU216HW,2013-05-23 22:56:00,
2013-05-23 15:57:00,49.1,43.5,29.96,SW,225,4.9,8.1,81,0.00,,,0.01,WUHU216HW,2013-05-23 22:57:00,
2013-05-23 15:59:00,49.3,43.7,29.96,SW,225,4.0,7.6,81,0.00,,,0.01,WUHU216HW,2013-05-23 22:59:00,
2013-05-23 16:00:00,49.1,43.5,29.96,SE,135,3.6,7.6,81,0.00,,,0.01,WUHU216HW,2013-05-23 23:00:00,
2013-05-23 16:01:00,49.1,43.5,29.96,SW,225,2.0,6.9,81,0.00,,,0.01,WUHU216HW,2013-05-23 23:01:00,
2013-05-23 16:02:00,49.1,43.5,29.96,WSW,248,3.4,6.9,81,0.00,,,0.01,WUHU216HW,2013-05-23 23:02:00,
2013-05-23 16:04:00,49.1,43.5,29.96,SW,225,4.0,6.9,81,0.00,,,0.01,WUHU216HW,2013-05-23 23:04:00,
2013-05-23 16:05:00,49.1,43.5,29.96,SSW,203,3.1,6.0,81,0.00,,,0.01,WUHU216HW,2013-05-23 23:05:00,
2013-05-23 16:06:00,49.1,43.5,29.96,SW,225,2.5,6.3,81,0.00,,,0.01,WUHU216HW,2013-05-23 23:06:00,
2013-05-23 16:07:00,49.1,43.5,29.96,SW,225,2.7,6.3,81,0.00,,,0.01,WUHU216HW,2013-05-23 23:07:00,
2013-05-23 16:09:00,49.1,43.5,29.96,SW,225,2.5,6.3,81,0.00,,,0.01,WUHU216HW,2013-05-23 23:09:00,
2013-05-23 16:10:00,49.1,43.5,29.96,SSE,158,0.9,6.3,81,0.00,,,0.01,WUHU216HW,2013-05-23 23:10:00,
2013-05-23 16:11:00,49.1,43.5,29.96,SW,225,1.3,6.3,81,0.00,,,0.01,WUHU216HW,2013-05-23 23:11:00,
2013-05-23 16:12:00,49.1,43.5,29.96,SE,135,2.5,6.3,81,0.00,,,0.01,WUHU216HW,2013-05-23 23:12:00,
2013-05-23 16:14:00,49.1,43.9,29.96,ENE,68,4.5,6.3,82,0.00,,,0.01,WUHU216HW,2013-05-23 23:14:00,
2013-05-23 16:15:00,49.1,43.9,29.96,SSW,203,3.6,6.3,82,0.00,,,0.01,WUHU216HW,2013-05-23 23:15:00,
2013-05-23 16:16:00,49.1,43.9,29.96,SSW,203,2.0,4.5,82,0.00,,,0.01,WUHU216HW,2013-05-23 23:16:00,
2013-05-23 16:17:00,48.9,43.7,29.96,South,180,0.9,4.5,82,0.00,,,0.01,WUHU216HW,2013-05-23 23:17:00,
2013-05-23 16:19:00,48.9,43.7,29.96,WSW,248,0.9,4.5,82,0.00,,,0.01,WUHU216HW,2013-05-23 23:19:00,
2013-05-23 16:20:00,48.9,43.7,29.96,SSE,158,2.5,4.5,82,0.00,,,0.01,WUHU216HW,2013-05-23 23:20:00,
2013-05-23 16:21:00,48.9,43.7,29.96,South,180,3.1,4.5,82,0.00,,,0.01,WUHU216HW,2013-05-23 23:21:00,
2013-05-23 16:22:00,48.9,43.7,29.96,SSW,203,0.2,4.5,82,0.00,,,0.01,WUHU216HW,2013-05-23 23:22:00,
2013-05-23 16:24:00,48.9,43.7,29.96,SW,225,3.6,4.5,82,0.00,,,0.01,WUHU216HW,2013-05-23 23:24:00,
2013-05-23 16:25:00,48.9,43.7,29.96,SSE,158,1.8,4.0,82,0.00,,,0.01,WUHU216HW,2013-05-23 23:25:00,
2013-05-23 16:26:00,48.7,43.5,29.96,South,180,1.8,4.0,82,0.00,,,0.01,WUHU216HW,2013-05-23 23:26:00,
2013-05-23 16:27:00,48.7,43.5,29.96,SSE,158,0.9,4.0,82,0.00,,,0.01,WUHU216HW,2013-05-23 23:27:00,
2013-05-23 16:29:00,48.7,43.5,29.96,ESE,113,0.4,4.0,82,0.00,,,0.01,WUHU216HW,2013-05-23 23:29:00,
2013-05-23 16:30:00,48.7,43.5,29.96,SW,225,1.8,4.0,82,0.00,,,0.01,WUHU216HW,2013-05-23 23:30:00,
2013-05-23 16:31:00,48.7,43.8,29.96,SSE,158,1.3,4.0,83,0.00,,,0.01,WUHU216HW,2013-05-23 23:31:00,
2013-05-23 16:32:00,48.5,43.6,29.96,East,90,0.2,4.0,83,0.00,,,0.01,WUHU216HW,2013-05-23 23:32:00,
2013-05-23 16:33:00,48.7,43.8,29.96,South,180,2.0,4.0,83,0.00,,,0.01,WUHU216HW,2013-05-23 23:33:00,
2013-05-23 16:35:00,48.5,43.6,29.96,SE,135,1.8,2.7,83,0.00,,,0.01,WUHU216HW,2013-05-23 23:35:00,
2013-05-23 16:36:00,48.5,43.6,29.96,SE,135,1.8,2.2,83,0.00,,,0.01,WUHU216HW,2013-05-23 23:36:00,
2013-05-23 16:37:00,48.5,43.6,29.96,SE,135,1.1,2.2,83,0.00,,,0.01,WUHU216HW,2013-05-23 23:37:00,
2013-05-23 16:38:00,48.5,43.6,29.96,SSE,158,2.7,2.7,83,0.00,,,0.01,WUHU216HW,2013-05-23 23:38:00,
2013-05-23 16:40:00,48.5,43.9,29.96,ESE,113,1.1,2.7,84,0.00,,,0.01,WUHU216HW,2013-05-23 23:40:00,
2013-05-23 16:41:00,48.5,43.9,29.96,ENE,68,0.7,2.7,84,0.00,,,0.01,WUHU216HW,2013-05-23 23:41:00,
2013-05-23 16:42:00,48.5,43.9,29.96,ESE,113,0.9,2.7,84,0.00,,,0.01,WUHU216HW,2013-05-23 23:42:00,
2013-05-23 16:43:00,48.5,43.9,29.96,ENE,68,2.2,3.1,84,0.00,,,0.01,WUHU216HW,2013-05-23 23:43:00,
2013-05-23 16:45:00,48.5,43.9,29.96,South,180,0.9,3.1,84,0.00,,,0.01,WUHU216HW,2013-05-23 23:45:00,
2013-05-23 16:46:00,48.5,43.9,29.96,SSE,158,0.0,3.1,84,0.00,,,0.01,WUHU216HW,2013-05-23 23:46:00,
2013-05-23 16:47:00,48.5,43.9,29.96,SSE,158,0.0,3.1,84,0.00,,,0.01,WUHU216HW,2013-05-23 23:47:00,
2013-05-23 16:48:00,48.5,43.9,29.96,East,90,1.8,3.1,84,0.00,,,0.01,WUHU216HW,2013-05-23 23:48:00,
2013-05-23 16:50:00,48.5,44.2,29.96,East,90,0.9,3.1,85,0.00,,,0.01,WUHU216HW,2013-05-23 23:50:00,
2013-05-23 16:51:00,48.5,44.2,29.96,ESE,113,1.8,3.1,85,0.00,,,0.01,WUHU216HW,2013-05-23 23:51:00,
2013-05-23 16:52:00,48.5,44.2,29.96,SSE,158,1.1,3.1,85,0.00,,,0.01,WUHU216HW,2013-05-23 23:52:00,
2013-05-23 16:53:00,48.5,44.2,29.96,SE,135,1.8,2.5,85,0.00,,,0.01,WUHU216HW,2013-05-23 23:53:00,
2013-05-23 16:55:00,48.5,44.5,29.96,East,90,2.5,2.9,86,0.00,,,0.01,WUHU216HW,2013-05-23 23:55:00,
2013-05-23 16:56:00,48.5,44.5,29.96,SE,135,1.8,3.1,86,0.00,,,0.01,WUHU216HW,2013-05-23 23:56:00,
2013-05-23 16:58:00,48.5,44.5,29.96,SE,135,3.6,3.6,86,0.00,,,0.01,WUHU216HW,2013-05-23 23:58:00,
2013-05-23 17:00:00,48.5,44.5,29.96,ESE,113,4.7,4.7,86,0.00,,,0.01,WUHU216HW,2013-05-24 00:00:00,
2013-05-23 17:01:00,48.5,44.5,29.96,SE,135,2.5,4.7,86,0.00,,,0.01,WUHU216HW,2013-05-24 00:01:00,
2013-05-23 17:02:00,48.5,44.5,29.96,ESE,113,2.9,4.7,86,0.00,,,0.01,WUHU216HW,2013-05-24 00:02:00,
2013-05-23 17:03:00,48.5,44.2,29.96,SE,135,3.6,4.9,85,0.00,,,0.01,WUHU216HW,2013-05-24 00:03:00,
2013-05-23 17:05:00,48.5,44.5,29.96,ENE,68,4.0,4.9,86,0.00,,,0.01,WUHU216HW,2013-05-24 00:05:00,
2013-05-23 17:06:00,48.7,44.4,29.96,ESE,113,3.1,4.9,85,0.00,,,0.01,WUHU216HW,2013-05-24 00:06:00,
2013-05-23 17:07:00,48.7,44.4,29.96,ESE,113,2.2,4.9,85,0.00,,,0.01,WUHU216HW,2013-05-24 00:07:00,
2013-05-23 17:08:00,48.5,44.5,29.96,SE,135,1.8,4.9,86,0.00,,,0.01,WUHU216HW,2013-05-24 00:08:00,
2013-05-23 17:10:00,48.5,44.5,29.96,SE,135,1.3,4.9,86,0.00,,,0.01,WUHU216HW,2013-05-24 00:10:00,
2013-05-23 17:11:00,48.5,44.5,29.96,SE,135,1.8,4.9,86,0.00,,,0.01,WUHU216HW,2013-05-24 00:11:00,
2013-05-23 17:12:00,48.7,44.7,29.96,South,180,0.7,4.9,86,0.00,,,0.01,WUHU216HW,2013-05-24 00:12:00,
2013-05-23 17:13:00,48.7,44.7,29.96,East,90,2.2,4.0,86,0.00,,,0.01,WUHU216HW,2013-05-24 00:13:00,
2013-05-23 17:15:00,48.7,44.7,29.96,ESE,113,1.8,4.0,86,0.00,,,0.01,WUHU216HW,2013-05-24 00:15:00,
2013-05-23 17:16:00,48.7,44.7,29.96,SE,135,1.1,4.0,86,0.00,,,0.01,WUHU216HW,2013-05-24 00:16:00,
2013-05-23 17:17:00,48.7,44.7,29.96,ESE,113,0.4,4.0,86,0.00,,,0.01,WUHU216HW,2013-05-24 00:17:00,
2013-05-23 17:18:00,48.7,44.7,29.96,East,90,0.9,4.0,86,0.00,,,0.01,WUHU216HW,2013-05-24 00:18:00,
2013-05-23 17:20:00,48.7,44.7,29.96,East,90,2.7,4.0,86,0.00,,,0.01,WUHU216HW,2013-05-24 00:20:00,
2013-05-23 17:21:00,48.7,44.7,29.96,East,90,2.2,4.0,86,0.00,,,0.01,WUHU216HW,2013-05-24 00:21:00,
2013-05-23 17:22:00,48.7,44.7,29.96,East,90,0.4,4.0,86,0.00,,,0.01,WUHU216HW,2013-05-24 00:22:00,
2013-05-23 17:23:00,48.7,44.7,29.96,ESE,113,1.1,3.4,86,0.00,,,0.01,WUHU216HW,2013-05-24 00:23:00,
2013-05-23 17:24:00,48.7,44.7,29.96,ESE,113,3.4,3.4,86,0.00,,,0.01,WUHU216HW,2013-05-24 00:24:00,
2013-05-23 17:26:00,48.7,44.7,29.96,NNE,23,0.7,3.4,86,0.00,,,0.01,WUHU216HW,2013-05-24 00:26:00,
2013-05-23 17:27:00,48.9,44.6,29.95,NE,45,0.0,3.4,85,0.00,,,0.01,WUHU216HW,2013-05-24 00:27:00,
2013-05-23 17:28:00,48.7,44.4,29.95,ESE,113,1.1,3.4,85,0.00,,,0.01,WUHU216HW,2013-05-24 00:28:00,
2013-05-23 17:29:00,48.7,44.4,29.96,ESE,113,4.0,4.0,85,0.00,,,0.01,WUHU216HW,2013-05-24 00:29:00,
2013-05-23 17:31:00,48.7,44.4,29.96,ESE,113,0.4,4.0,85,0.00,,,0.01,WUHU216HW,2013-05-24 00:31:00,
2013-05-23 17:32:00,48.9,44.6,29.95,SE,135,3.8,4.0,85,0.00,,,0.01,WUHU216HW,2013-05-24 00:32:00,
2013-05-23 17:33:00,48.7,44.4,29.95,ESE,113,4.0,4.0,85,0.00,,,0.01,WUHU216HW,2013-05-24 00:33:00,
2013-05-23 17:34:00,48.9,44.6,29.95,SE,135,1.1,4.0,85,0.00,,,0.01,WUHU216HW,2013-05-24 00:34:00,
2013-05-23 17:36:00,48.9,44.6,29.95,SE,135,0.9,4.0,85,0.00,,,0.01,WUHU216HW,2013-05-24 00:36:00,
2013-05-23 17:37:00,48.9,44.6,29.95,SSE,158,0.4,4.0,85,0.00,,,0.01,WUHU216HW,2013-05-24 00:37:00,
2013-05-23 17:38:00,48.7,44.4,29.95,SE,135,2.0,4.0,85,0.00,,,0.01,WUHU216HW,2013-05-24 00:38:00,
2013-05-23 17:39:00,48.7,44.4,29.95,East,90,1.8,4.0,85,0.00,,,0.01,WUHU216HW,2013-05-24 00:39:00,
2013-05-23 17:41:00,48.7,44.4,29.95,ESE,113,3.4,4.0,85,0.00,,,0.01,WUHU216HW,2013-05-24 00:41:00,
2013-05-23 17:42:00,48.7,44.4,29.95,ESE,113,1.1,4.0,85,0.00,,,0.01,WUHU216HW,2013-05-24 00:42:00,
2013-05-23 17:43:00,48.7,44.4,29.95,South,180,1.8,4.0,85,0.00,,,0.01,WUHU216HW,2013-05-24 00:43:00,
2013-05-23 17:44:00,48.9,44.6,29.95,SE,135,1.1,3.4,85,0.00,,,0.01,WUHU216HW,2013-05-24 00:44:00,
2013-05-23 17:46:00,48.7,44.4,29.95,SE,135,2.5,3.4,85,0.00,,,0.01,WUHU216HW,2013-05-24 00:46:00,
2013-05-23 17:47:00,48.9,44.6,29.95,South,180,1.6,3.4,85,0.00,,,0.01,WUHU216HW,2013-05-24 00:47:00,
2013-05-23 17:48:00,48.9,44.6,29.95,South,180,3.4,3.4,85,0.00,,,0.01,WUHU216HW,2013-05-24 00:48:00,
2013-05-23 17:49:00,48.7,44.4,29.94,SSW,203,0.7,3.4,85,0.00,,,0.01,WUHU216HW,2013-05-24 00:49:00,
2013-05-23 17:51:00,48.9,44.6,29.95,South,180,1.8,3.8,85,0.00,,,0.01,WUHU216HW,2013-05-24 00:51:00,
2013-05-23 17:52:00,48.9,44.6,29.95,SSW,203,0.9,3.8,85,0.00,,,0.01,WUHU216HW,2013-05-24 00:52:00,
2013-05-23 17:53:00,48.9,44.6,29.95,SE,135,1.3,3.8,85,0.00,,,0.01,WUHU216HW,2013-05-24 00:53:00,
2013-05-23 17:54:00,48.9,44.6,29.95,SE,135,1.8,3.8,85,0.00,,,0.01,WUHU216HW,2013-05-24 00:54:00,
2013-05-23 17:56:00,48.9,44.6,29.95,SE,135,0.9,3.8,85,0.00,,,0.01,WUHU216HW,2013-05-24 00:56:00,
2013-05-23 17:57:00,48.9,44.6,29.95,SE,135,0.9,3.8,85,0.00,,,0.01,WUHU216HW,2013-05-24 00:57:00,
2013-05-23 17:58:00,48.9,44.6,29.95,SSE,158,1.8,3.8,85,0.00,,,0.01,WUHU216HW,2013-05-24 00:58:00,
2013-05-23 17:59:00,48.9,44.6,29.95,South,180,0.4,3.8,85,0.00,,,0.01,WUHU216HW,2013-05-24 00:59:00,
2013-05-23 18:01:00,48.9,44.6,29.95,South,180,0.7,2.5,85,0.00,,,0.01,WUHU216HW,2013-05-24 01:01:00,
2013-05-23 18:02:00,48.9,44.6,29.95,South,180,0.2,2.5,85,0.00,,,0.01,WUHU216HW,2013-05-24 01:02:00,
2013-05-23 18:03:00,48.9,44.6,29.95,SE,135,0.4,1.8,85,0.00,,,0.01,WUHU216HW,2013-05-24 01:03:00,
2013-05-23 18:04:00,48.9,44.6,29.95,East,90,2.9,2.9,85,0.00,,,0.01,WUHU216HW,2013-05-24 01:04:00,
2013-05-23 18:06:00,49.1,44.8,29.95,ESE,113,0.7,2.9,85,0.00,,,0.01,WUHU216HW,2013-05-24 01:06:00,
2013-05-23 18:07:00,48.9,44.6,29.95,ESE,113,2.2,2.9,85,0.00,,,0.01,WUHU216HW,2013-05-24 01:07:00,
2013-05-23 18:08:00,49.1,44.5,29.95,East,90,2.5,3.4,84,0.00,,,0.01,WUHU216HW,2013-05-24 01:08:00,
2013-05-23 18:09:00,49.1,44.5,29.95,East,90,0.4,3.4,84,0.00,,,0.01,WUHU216HW,2013-05-24 01:09:00,
2013-05-23 18:11:00,49.1,44.5,29.95,ESE,113,0.7,3.4,84,0.00,,,0.01,WUHU216HW,2013-05-24 01:11:00,
2013-05-23 18:12:00,49.1,44.5,29.95,ESE,113,1.8,3.4,84,0.00,,,0.01,WUHU216HW,2013-05-24 01:12:00,
2013-05-23 18:13:00,49.1,44.5,29.95,SSE,158,1.1,3.4,84,0.00,,,0.01,WUHU216HW,2013-05-24 01:13:00,
2013-05-23 18:14:00,49.1,44.5,29.95,ESE,113,0.9,3.4,84,0.00,,,0.01,WUHU216HW,2013-05-24 01:14:00,
2013-05-23 18:16:00,49.1,44.5,29.94,ENE,68,1.1,3.4,84,0.00,,,0.01,WUHU216HW,2013-05-24 01:16:00,
2013-05-23 18:17:00,49.1,44.5,29.94,SE,135,1.8,3.4,84,0.00,,,0.01,WUHU216HW,2013-05-24 01:17:00,
2013-05-23 18:18:00,49.1,44.5,29.94,SE,135,0.4,2.5,84,0.00,,,0.01,WUHU216HW,2013-05-24 01:18:00,
2013-05-23 18:19:00,49.1,44.5,29.94,SE,135,0.7,2.5,84,0.00,,,0.01,WUHU216HW,2013-05-24 01:19:00,
2013-05-23 18:21:00,49.1,44.5,29.94,ESE,113,1.1,2.5,84,0.00,,,0.01,WUHU216HW,2013-05-24 01:21:00,
2013-05-23 18:22:00,49.1,44.5,29.94,SE,135,1.3,2.5,84,0.00,,,0.01,WUHU216HW,2013-05-24 01:22:00,
2013-05-23 18:23:00,49.1,44.5,29.94,ENE,68,1.1,2.5,84,0.00,,,0.01,WUHU216HW,2013-05-24 01:23:00,
2013-05-23 18:24:00,49.1,44.5,29.94,ESE,113,2.0,2.5,84,0.00,,,0.01,WUHU216HW,2013-05-24 01:24:00,
2013-05-23 18:25:00,49.3,44.7,29.94,ENE,68,1.6,2.5,84,0.00,,,0.01,WUHU216HW,2013-05-24 01:25:00,
2013-05-23 18:27:00,49.3,44.7,29.94,East,90,2.2,2.5,84,0.00,,,0.01,WUHU216HW,2013-05-24 01:27:00,
2013-05-23 18:28:00,49.1,44.5,29.94,ESE,113,0.4,2.5,84,0.00,,,0.01,WUHU216HW,2013-05-24 01:28:00,
2013-05-23 18:29:00,49.1,44.5,29.94,ESE,113,0.4,2.5,84,0.00,,,0.01,WUHU216HW,2013-05-24 01:29:00,
2013-05-23 18:30:00,49.3,44.7,29.94,SE,135,1.6,2.5,84,0.00,,,0.01,WUHU216HW,2013-05-24 01:30:00,
2013-05-23 18:32:00,49.3,44.7,29.94,SE,135,2.2,2.5,84,0.00,,,0.01,WUHU216HW,2013-05-24 01:32:00,
2013-05-23 18:33:00,49.3,44.7,29.94,SE,135,2.7,2.7,84,0.00,,,0.01,WUHU216HW,2013-05-24 01:33:00,
2013-05-23 18:34:00,49.3,44.7,29.94,SE,135,2.7,2.7,84,0.00,,,0.01,WUHU216HW,2013-05-24 01:34:00,
2013-05-23 18:35:00,49.3,44.7,29.94,ENE,68,0.9,2.7,84,0.00,,,0.01,WUHU216HW,2013-05-24 01:35:00,
2013-05-23 18:37:00,49.3,44.7,29.94,SSE,158,0.9,2.7,84,0.00,,,0.01,WUHU216HW,2013-05-24 01:37:00,
2013-05-23 18:38:00,49.3,44.7,29.94,ESE,113,3.6,3.6,84,0.00,,,0.01,WUHU216HW,2013-05-24 01:38:00,
2013-05-23 18:39:00,49.3,44.7,29.93,ESE,113,3.4,3.8,84,0.00,,,0.01,WUHU216HW,2013-05-24 01:39:00,
2013-05-23 18:40:00,49.3,44.7,29.93,ESE,113,2.7,3.8,84,0.00,,,0.01,WUHU216HW,2013-05-24 01:40:00,
2013-05-23 18:42:00,49.3,44.7,29.94,SE,135,2.9,3.8,84,0.00,,,0.01,WUHU216HW,2013-05-24 01:42:00,
2013-05-23 18:43:00,49.3,44.7,29.94,East,90,0.9,3.8,84,0.00,,,0.01,WUHU216HW,2013-05-24 01:43:00,
2013-05-23 18:44:00,49.3,44.7,29.93,East,90,0.0,3.8,84,0.00,,,0.01,WUHU216HW,2013-05-24 01:44:00,
2013-05-23 18:45:00,49.3,44.7,29.93,North,0,0.9,3.8,84,0.00,,,0.01,WUHU216HW,2013-05-24 01:45:00,
2013-05-23 18:47:00,49.3,45.0,29.93,NW,315,1.1,3.8,85,0.00,,,0.01,WUHU216HW,2013-05-24 01:47:00,
2013-05-23 18:48:00,49.3,45.0,29.93,NW,315,0.0,3.8,85,0.00,,,0.01,WUHU216HW,2013-05-24 01:48:00,
2013-05-23 18:49:00,49.3,45.0,29.93,NNE,23,0.4,3.8,85,0.00,,,0.01,WUHU216HW,2013-05-24 01:49:00,
2013-05-23 18:50:00,49.1,44.8,29.93,NNE,23,0.4,3.8,85,0.00,,,0.01,WUHU216HW,2013-05-24 01:50:00,
2013-05-23 18:52:00,49.1,44.8,29.93,NNE,23,0.2,2.9,85,0.00,,,0.01,WUHU216HW,2013-05-24 01:52:00,
2013-05-23 18:53:00,49.1,44.8,29.93,NNE,23,0.0,1.1,85,0.00,,,0.01,WUHU216HW,2013-05-24 01:53:00,
2013-05-23 18:54:00,49.1,44.8,29.93,NNE,23,0.2,1.1,85,0.00,,,0.01,WUHU216HW,2013-05-24 01:54:00,
2013-05-23 18:55:00,49.1,45.1,29.93,NNE,23,0.4,1.1,86,0.00,,,0.01,WUHU216HW,2013-05-24 01:55:00,
2013-05-23 18:57:00,49.1,45.1,29.93,NNE,23,0.2,1.1,86,0.00,,,0.01,WUHU216HW,2013-05-24 01:57:00,
2013-05-23 18:58:00,48.9,44.9,29.93,North,0,0.4,0.7,86,0.00,,,0.01,WUHU216HW,2013-05-24 01:58:00,
2013-05-23 18:59:00,48.9,44.9,29.93,North,0,0.0,0.7,86,0.00,,,0.01,WUHU216HW,2013-05-24 01:59:00,
2013-05-23 19:00:00,48.9,44.9,29.93,North,0,0.0,0.4,86,0.00,,,0.01,WUHU216HW,2013-05-24 02:00:00,
2013-05-23 19:02:00,48.9,44.9,29.93,NNW,338,0.4,0.7,86,0.00,,,0.01,WUHU216HW,2013-05-24 02:02:00,
2013-05-23 19:03:00,48.9,44.9,29.93,NNW,338,0.2,0.7,86,0.00,,,0.01,WUHU216HW,2013-05-24 02:03:00,
2013-05-23 19:04:00,48.7,44.7,29.93,NNW,338,0.0,0.7,86,0.00,,,0.01,WUHU216HW,2013-05-24 02:04:00,
2013-05-23 19:05:00,48.7,44.7,29.93,NNW,338,0.4,0.7,86,0.00,,,0.01,WUHU216HW,2013-05-24 02:05:00,
2013-05-23 19:07:00,48.7,44.7,29.93,NNW,338,0.7,0.7,86,0.00,,,0.01,WUHU216HW,2013-05-24 02:07:00,
2013-05-23 19:08:00,48.7,44.7,29.93,NW,315,0.2,0.7,86,0.00,,,0.01,WUHU216HW,2013-05-24 02:08:00,
2013-05-23 19:09:00,48.7,44.7,29.93,NNW,338,0.4,0.7,86,0.00,,,0.01,WUHU216HW,2013-05-24 02:09:00,
2013-05-23 19:10:00,48.7,44.7,29.93,North,0,0.2,0.7,86,0.00,,,0.01,WUHU216HW,2013-05-24 02:10:00,
2013-05-23 19:12:00,48.7,44.7,29.93,NNE,23,0.0,0.9,86,0.00,,,0.01,WUHU216HW,2013-05-24 02:12:00,
2013-05-23 19:13:00,48.5,44.5,29.93,NNE,23,0.0,0.9,86,0.00,,,0.01,WUHU216HW,2013-05-24 02:13:00,
2013-05-23 19:14:00,48.5,44.5,29.93,NNE,23,0.0,0.9,86,0.00,,,0.01,WUHU216HW,2013-05-24 02:14:00,
2013-05-23 19:15:00,48.5,44.5,29.93,NNE,23,0.0,0.9,86,0.00,,,0.01,WUHU216HW,2013-05-24 02:15:00,
2013-05-23 19:17:00,48.5,44.5,29.93,NNE,23,0.2,0.9,86,0.00,,,0.01,WUHU216HW,2013-05-24 02:17:00,
2013-05-23 19:18:00,48.5,44.5,29.93,NNE,23,0.2,0.9,86,0.00,,,0.01,WUHU216HW,2013-05-24 02:18:00,
2013-05-23 19:19:00,48.5,44.5,29.93,North,0,0.4,0.9,86,0.00,,,0.01,WUHU216HW,2013-05-24 02:19:00,
2013-05-23 19:20:00,48.5,44.5,29.93,North,0,0.4,0.9,86,0.00,,,0.01,WUHU216HW,2013-05-24 02:20:00,
2013-05-23 19:21:00,48.5,44.5,29.93,NNW,338,0.2,0.7,86,0.00,,,0.01,WUHU216HW,2013-05-24 02:21:00,
2013-05-23 19:23:00,48.5,44.5,29.93,NNW,338,0.4,0.7,86,0.00,,,0.01,WUHU216HW,2013-05-24 02:23:00,
2013-05-23 19:24:00,48.5,44.5,29.93,NNW,338,0.7,0.7,86,0.00,,,0.01,WUHU216HW,2013-05-24 02:24:00,
2013-05-23 19:25:00,48.5,44.5,29.93,North,0,0.0,0.7,86,0.00,,,0.01,WUHU216HW,2013-05-24 02:25:00,
2013-05-23 19:26:00,48.5,44.5,29.93,North,0,0.2,0.7,86,0.00,,,0.01,WUHU216HW,2013-05-24 02:26:00,
2013-05-23 19:28:00,48.4,44.4,29.93,North,0,0.4,0.7,86,0.00,,,0.01,WUHU216HW,2013-05-24 02:28:00,
2013-05-23 19:29:00,48.4,44.4,29.93,North,0,0.0,0.7,86,0.00,,,0.01,WUHU216HW,2013-05-24 02:29:00,
2013-05-23 19:30:00,48.4,44.4,29.93,North,0,0.2,0.7,86,0.00,,,0.01,WUHU216HW,2013-05-24 02:30:00,
2013-05-23 19:31:00,48.2,44.2,29.93,North,0,0.0,0.7,86,0.00,,,0.01,WUHU216HW,2013-05-24 02:31:00,
2013-05-23 19:33:00,48.2,44.5,29.92,North,0,0.0,0.7,87,0.00,,,0.01,WUHU216HW,2013-05-24 02:33:00,
2013-05-23 19:34:00,48.2,44.5,29.93,North,0,0.0,0.7,87,0.00,,,0.01,WUHU216HW,2013-05-24 02:34:00,
2013-05-23 19:35:00,48.2,44.5,29.92,North,0,0.0,0.4,87,0.00,,,0.01,WUHU216HW,2013-05-24 02:35:00,
2013-05-23 19:36:00,48.2,44.2,29.93,North,0,0.0,0.4,86,0.00,,,0.01,WUHU216HW,2013-05-24 02:36:00,
2013-05-23 19:38:00,48.2,44.2,29.93,NNW,338,0.4,0.4,86,0.00,,,0.01,WUHU216HW,2013-05-24 02:38:00,
2013-05-23 19:39:00,48.2,44.2,29.92,NNW,338,0.2,0.4,86,0.00,,,0.01,WUHU216HW,2013-05-24 02:39:00,
2013-05-23 19:40:00,48.2,44.2,29.92,NNW,338,0.2,0.4,86,0.00,,,0.01,WUHU216HW,2013-05-24 02:40:00,
2013-05-23 19:41:00,48.2,44.2,29.93,NNW,338,0.2,0.4,86,0.00,,,0.01,WUHU216HW,2013-05-24 02:41:00,
2013-05-23 19:43:00,48.2,44.2,29.92,NNW,338,0.4,0.4,86,0.00,,,0.01,WUHU216HW,2013-05-24 02:43:00,
2013-05-23 19:44:00,48.2,44.2,29.92,NNW,338,0.2,0.4,86,0.00,,,0.01,WUHU216HW,2013-05-24 02:44:00,
2013-05-23 19:45:00,48.0,44.0,29.92,NNW,338,0.0,0.4,86,0.00,,,0.01,WUHU216HW,2013-05-24 02:45:00,
2013-05-23 19:46:00,48.2,44.2,29.92,NNW,338,0.0,0.4,86,0.00,,,0.01,WUHU216HW,2013-05-24 02:46:00,
2013-05-23 19:48:00,48.0,44.0,29.92,NNW,338,0.0,0.4,86,0.00,,,0.01,WUHU216HW,2013-05-24 02:48:00,
2013-05-23 19:49:00,48.0,44.3,29.92,NNW,338,0.2,0.4,87,0.00,,,0.01,WUHU216HW,2013-05-24 02:49:00,
2013-05-23 19:50:00,48.0,44.3,29.92,NNW,338,0.0,0.4,87,0.00,,,0.01,WUHU216HW,2013-05-24 02:50:00,
2013-05-23 19:51:00,48.0,44.3,29.92,NNW,338,0.0,0.4,87,0.00,,,0.01,WUHU216HW,2013-05-24 02:51:00,
2013-05-23 19:53:00,48.0,44.3,29.92,NNW,338,0.4,0.4,87,0.00,,,0.01,WUHU216HW,2013-05-24 02:53:00,
2013-05-23 19:54:00,48.0,44.3,29.92,NNW,338,0.4,0.4,87,0.00,,,0.01,WUHU216HW,2013-05-24 02:54:00,
2013-05-23 19:55:00,48.0,44.3,29.92,NNW,338,0.4,0.4,87,0.00,,,0.01,WUHU216HW,2013-05-24 02:55:00,
2013-05-23 19:56:00,48.0,44.3,29.92,NNW,338,0.4,0.4,87,0.00,,,0.01,WUHU216HW,2013-05-24 02:56:00,
2013-05-23 19:58:00,47.8,44.1,29.92,NNW,338,0.0,0.4,87,0.00,,,0.01,WUHU216HW,2013-05-24 02:58:00,
2013-05-23 19:59:00,47.8,44.1,29.92,NNW,338,0.2,0.4,87,0.00,,,0.01,WUHU216HW,2013-05-24 02:59:00,
2013-05-23 20:00:00,47.8,44.1,29.92,NNW,338,0.0,0.4,87,0.00,,,0.01,WUHU216HW,2013-05-24 03:00:00,
2013-05-23 20:01:00,47.8,44.1,29.92,NNW,338,0.2,0.4,87,0.00,,,0.01,WUHU216HW,2013-05-24 03:01:00,
2013-05-23 20:02:00,47.8,44.1,29.92,North,0,0.4,0.4,87,0.00,,,0.01,WUHU216HW,2013-05-24 03:02:00,
2013-05-23 20:04:00,47.6,43.9,29.92,North,0,0.7,0.9,87,0.00,,,0.01,WUHU216HW,2013-05-24 03:04:00,
2013-05-23 20:05:00,47.6,43.9,29.92,NNE,23,0.9,1.1,87,0.00,,,0.01,WUHU216HW,2013-05-24 03:05:00,
2013-05-23 20:06:00,47.6,43.9,29.92,NNE,23,0.4,1.1,87,0.00,,,0.01,WUHU216HW,2013-05-24 03:06:00,
2013-05-23 20:07:00,47.6,43.9,29.92,NNE,23,0.4,1.1,87,0.00,,,0.01,WUHU216HW,2013-05-24 03:07:00,
2013-05-23 20:09:00,47.6,43.9,29.92,ENE,68,0.4,1.1,87,0.00,,,0.01,WUHU216HW,2013-05-24 03:09:00,
2013-05-23 20:10:00,47.6,43.9,29.92,NE,45,0.4,1.1,87,0.00,,,0.01,WUHU216HW,2013-05-24 03:10:00,
2013-05-23 20:11:00,47.6,43.9,29.92,NE,45,0.0,1.1,87,0.00,,,0.01,WUHU216HW,2013-05-24 03:11:00,
2013-05-23 20:12:00,47.6,43.9,29.92,NE,45,0.4,1.1,87,0.00,,,0.01,WUHU216HW,2013-05-24 03:12:00,
2013-05-23 20:14:00,47.6,43.9,29.92,NW,315,0.9,1.1,87,0.00,,,0.01,WUHU216HW,2013-05-24 03:14:00,
2013-05-23 20:15:00,47.6,43.9,29.92,NW,315,0.0,0.9,87,0.00,,,0.01,WUHU216HW,2013-05-24 03:15:00,
2013-05-23 20:16:00,47.6,43.9,29.92,NNW,338,0.2,0.9,87,0.00,,,0.01,WUHU216HW,2013-05-24 03:16:00,
2013-05-23 20:17:00,47.6,43.9,29.92,NNW,338,0.7,0.9,87,0.00,,,0.01,WUHU216HW,2013-05-24 03:17:00,
2013-05-23 20:18:00,47.5,43.8,29.92,NW,315,0.9,0.9,87,0.00,,,0.01,WUHU216HW,2013-05-24 03:18:00,
2013-05-23 20:19:00,47.5,43.8,29.92,NW,315,0.9,1.1,87,0.00,,,0.01,WUHU216HW,2013-05-24 03:19:00,
2013-05-23 20:21:00,47.5,43.8,29.92,NNW,338,0.2,1.1,87,0.00,,,0.01,WUHU216HW,2013-05-24 03:21:00,
2013-05-23 20:22:00,47.5,43.8,29.92,NNW,338,0.2,1.1,87,0.00,,,0.01,WUHU216HW,2013-05-24 03:22:00,
2013-05-23 20:23:00,47.5,43.8,29.92,NNW,338,0.0,1.1,87,0.00,,,0.01,WUHU216HW,2013-05-24 03:23:00,
2013-05-23 20:24:00,47.3,43.6,29.92,NNW,338,0.4,1.1,87,0.00,,,0.01,WUHU216HW,2013-05-24 03:24:00,
2013-05-23 20:26:00,47.3,43.6,29.92,NNW,338,0.2,1.1,87,0.00,,,0.01,WUHU216HW,2013-05-24 03:26:00,
2013-05-23 20:27:00,47.3,43.9,29.92,North,0,0.7,1.1,88,0.00,,,0.01,WUHU216HW,2013-05-24 03:27:00,
2013-05-23 20:28:00,47.3,43.9,29.92,North,0,0.4,1.1,88,0.00,,,0.01,WUHU216HW,2013-05-24 03:28:00,
2013-05-23 20:29:00,47.3,43.9,29.92,NNW,338,0.0,0.9,88,0.00,,,0.01,WUHU216HW,2013-05-24 03:29:00,
2013-05-23 20:31:00,47.3,43.9,29.92,NNW,338,0.0,0.7,88,0.00,,,0.01,WUHU216HW,2013-05-24 03:31:00,
2013-05-23 20:32:00,47.3,43.9,29.92,NNW,338,0.0,0.7,88,0.00,,,0.01,WUHU216HW,2013-05-24 03:32:00,
2013-05-23 20:33:00,47.3,43.9,29.92,NNW,338,0.0,0.7,88,0.00,,,0.01,WUHU216HW,2013-05-24 03:33:00,
2013-05-23 20:34:00,47.3,43.9,29.92,North,0,0.0,0.7,88,0.00,,,0.01,WUHU216HW,2013-05-24 03:34:00,
2013-05-23 20:35:00,47.3,43.9,29.92,North,0,0.0,0.7,88,0.00,,,0.01,WUHU216HW,2013-05-24 03:35:00,
2013-05-23 20:37:00,47.3,43.9,29.92,North,0,0.4,0.7,88,0.00,,,0.01,WUHU216HW,2013-05-24 03:37:00,
2013-05-23 20:38:00,47.1,43.7,29.92,North,0,0.7,0.7,88,0.00,,,0.01,WUHU216HW,2013-05-24 03:38:00,
2013-05-23 20:39:00,47.1,43.7,29.92,North,0,0.4,0.7,88,0.00,,,0.01,WUHU216HW,2013-05-24 03:39:00,
2013-05-23 20:40:00,47.1,43.7,29.92,North,0,0.4,0.7,88,0.00,,,0.01,WUHU216HW,2013-05-24 03:40:00,
2013-05-23 20:42:00,47.1,43.7,29.92,North,0,0.0,0.7,88,0.00,,,0.01,WUHU216HW,2013-05-24 03:42:00,
2013-05-23 20:43:00,47.1,43.7,29.92,North,0,0.4,0.7,88,0.00,,,0.01,WUHU216HW,2013-05-24 03:43:00,
2013-05-23 20:44:00,47.1,43.7,29.92,North,0,0.0,0.7,88,0.00,,,0.01,WUHU216HW,2013-05-24 03:44:00,
2013-05-23 20:45:00,47.1,43.7,29.92,North,0,0.2,0.7,88,0.00,,,0.01,WUHU216HW,2013-05-24 03:45:00,
2013-05-23 20:47:00,47.1,43.7,29.92,North,0,0.7,0.7,88,0.00,,,0.01,WUHU216HW,2013-05-24 03:47:00,
2013-05-23 20:48:00,47.1,43.7,29.92,North,0,0.7,0.9,88,0.00,,,0.01,WUHU216HW,2013-05-24 03:48:00,
2013-05-23 20:49:00,47.1,43.7,29.92,NNW,338,0.4,0.9,88,0.00,,,0.01,WUHU216HW,2013-05-24 03:49:00,
2013-05-23 20:50:00,47.1,43.7,29.92,North,0,0.4,0.9,88,0.00,,,0.01,WUHU216HW,2013-05-24 03:50:00,
2013-05-23 20:52:00,47.1,43.7,29.92,NNW,338,0.2,0.9,88,0.00,,,0.01,WUHU216HW,2013-05-24 03:52:00,
2013-05-23 20:53:00,47.1,43.7,29.92,North,0,0.2,0.9,88,0.00,,,0.01,WUHU216HW,2013-05-24 03:53:00,
2013-05-23 20:54:00,47.1,43.7,29.92,North,0,0.0,0.9,88,0.00,,,0.01,WUHU216HW,2013-05-24 03:54:00,
2013-05-23 20:55:00,47.1,43.7,29.92,North,0,0.2,0.9,88,0.00,,,0.01,WUHU216HW,2013-05-24 03:55:00,
2013-05-23 20:57:00,46.9,43.5,29.92,NNW,338,0.0,0.9,88,0.00,,,0.01,WUHU216HW,2013-05-24 03:57:00,
2013-05-23 20:58:00,46.9,43.5,29.92,NNW,338,0.2,0.7,88,0.00,,,0.01,WUHU216HW,2013-05-24 03:58:00,
2013-05-23 20:59:00,46.9,43.5,29.92,NNW,338,0.0,0.7,88,0.00,,,0.01,WUHU216HW,2013-05-24 03:59:00,
2013-05-23 21:00:00,46.7,43.3,29.92,NNW,338,0.0,0.4,88,0.00,,,0.01,WUHU216HW,2013-05-24 04:00:00,
2013-05-23 21:02:00,46.7,43.3,29.92,NNW,338,0.0,0.4,88,0.00,,,0.01,WUHU216HW,2013-05-24 04:02:00,
2013-05-23 21:03:00,46.7,43.3,29.92,NNW,338,0.0,0.9,88,0.00,,,0.01,WUHU216HW,2013-05-24 04:03:00,
2013-05-23 21:04:00,46.7,43.3,29.92,NNW,338,0.0,0.9,88,0.00,,,0.01,WUHU216HW,2013-05-24 04:04:00,
2013-05-23 21:05:00,46.6,43.2,29.92,North,0,0.0,0.9,88,0.00,,,0.01,WUHU216HW,2013-05-24 04:05:00,
2013-05-23 21:07:00,46.6,43.2,29.92,North,0,0.0,0.9,88,0.00,,,0.01,WUHU216HW,2013-05-24 04:07:00,
2013-05-23 21:08:00,46.4,43.0,29.92,North,0,0.0,0.9,88,0.00,,,0.01,WUHU216HW,2013-05-24 04:08:00,
2013-05-23 21:09:00,46.4,43.0,29.92,North,0,0.0,0.9,88,0.00,,,0.01,WUHU216HW,2013-05-24 04:09:00,
2013-05-23 21:10:00,46.4,43.0,29.92,NNW,338,0.2,0.9,88,0.00,,,0.01,WUHU216HW,2013-05-24 04:10:00,
2013-05-23 21:12:00,46.4,43.0,29.92,NNW,338,0.0,0.9,88,0.00,,,0.01,WUHU216HW,2013-05-24 04:12:00,
2013-05-23 21:13:00,46.4,43.0,29.92,NNW,338,0.2,0.4,88,0.00,,,0.01,WUHU216HW,2013-05-24 04:13:00,
2013-05-23 21:14:00,46.4,43.0,29.92,NNW,338,0.0,0.4,88,0.00,,,0.01,WUHU216HW,2013-05-24 04:14:00,
2013-05-23 21:15:00,46.4,43.0,29.92,NNW,338,0.0,0.4,88,0.00,,,0.01,WUHU216HW,2013-05-24 04:15:00,
2013-05-23 21:17:00,46.4,43.0,29.92,NNW,338,0.0,0.4,88,0.00,,,0.01,WUHU216HW,2013-05-24 04:17:00,
2013-05-23 21:18:00,46.2,42.8,29.92,NNW,338,0.0,0.4,88,0.00,,,0.01,WUHU216HW,2013-05-24 04:18:00,
2013-05-23 21:19:00,46.2,42.8,29.92,NNW,338,0.0,0.4,88,0.00,,,0.01,WUHU216HW,2013-05-24 04:19:00,
2013-05-23 21:20:00,46.2,42.8,29.92,NNW,338,0.0,0.4,88,0.00,,,0.01,WUHU216HW,2013-05-24 04:20:00,
2013-05-23 21:22:00,46.2,42.8,29.92,NNW,338,0.0,0.2,88,0.00,,,0.01,WUHU216HW,2013-05-24 04:22:00,
2013-05-23 21:23:00,46.2,42.8,29.92,NNW,338,0.0,0.2,88,0.00,,,0.01,WUHU216HW,2013-05-24 04:23:00,
2013-05-23 21:24:00,46.2,42.8,29.92,NNW,338,0.0,0.2,88,0.00,,,0.01,WUHU216HW,2013-05-24 04:24:00,
2013-05-23 21:25:00,46.2,42.8,29.92,NNW,338,0.0,0.2,88,0.00,,,0.01,WUHU216HW,2013-05-24 04:25:00,
2013-05-23 21:27:00,46.0,42.6,29.92,NNW,338,0.0,0.2,88,0.00,,,0.01,WUHU216HW,2013-05-24 04:27:00,
2013-05-23 21:28:00,46.0,42.6,29.92,NNW,338,0.4,0.4,88,0.00,,,0.01,WUHU216HW,2013-05-24 04:28:00,
2013-05-23 21:29:00,46.0,42.6,29.92,NNW,338,0.4,0.4,88,0.00,,,0.01,WUHU216HW,2013-05-24 04:29:00,
2013-05-23 21:30:00,46.0,42.6,29.92,NNW,338,0.0,0.4,88,0.00,,,0.01,WUHU216HW,2013-05-24 04:30:00,
2013-05-23 21:32:00,45.8,42.4,29.92,NNW,338,0.0,0.4,88,0.00,,,0.01,WUHU216HW,2013-05-24 04:32:00,
2013-05-23 21:33:00,45.8,42.4,29.92,NNW,338,0.0,0.4,88,0.00,,,0.01,WUHU216HW,2013-05-24 04:33:00,
2013-05-23 21:34:00,45.8,42.4,29.92,NNW,338,0.0,0.4,88,0.00,,,0.01,WUHU216HW,2013-05-24 04:34:00,
2013-05-23 21:35:00,45.7,42.3,29.92,NNW,338,0.0,0.4,88,0.00,,,0.01,WUHU216HW,2013-05-24 04:35:00,
2013-05-23 21:37:00,45.7,42.3,29.92,NNW,338,0.0,0.4,88,0.00,,,0.01,WUHU216HW,2013-05-24 04:37:00,
2013-05-23 21:38:00,45.7,42.3,29.92,NNW,338,0.0,0.4,88,0.00,,,0.01,WUHU216HW,2013-05-24 04:38:00,
2013-05-23 21:39:00,45.7,42.3,29.92,NNW,338,0.0,0.4,88,0.00,,,0.01,WUHU216HW,2013-05-24 04:39:00,
2013-05-23 21:40:00,45.7,42.3,29.92,NNW,338,0.0,0.2,88,0.00,,,0.01,WUHU216HW,2013-05-24 04:40:00,
2013-05-23 21:42:00,45.7,42.3,29.92,NNW,338,0.0,0.2,88,0.00,,,0.01,WUHU216HW,2013-05-24 04:42:00,
2013-05-23 21:43:00,45.7,42.3,29.92,NNW,338,0.0,0.2,88,0.00,,,0.01,WUHU216HW,2013-05-24 04:43:00,
2013-05-23 21:44:00,45.7,42.3,29.92,NNW,338,0.0,0.0,88,0.00,,,0.01,WUHU216HW,2013-05-24 04:44:00,
2013-05-23 21:45:00,45.7,42.3,29.92,NNW,338,0.0,0.0,88,0.00,,,0.01,WUHU216HW,2013-05-24 04:45:00,
2013-05-23 21:46:00,45.5,42.1,29.92,NNW,338,0.0,0.0,88,0.00,,,0.01,WUHU216HW,2013-05-24 04:46:00,
2013-05-23 21:48:00,45.7,42.3,29.92,NNW,338,0.0,0.0,88,0.00,,,0.01,WUHU216HW,2013-05-24 04:48:00,
2013-05-23 21:49:00,45.7,42.3,29.92,NNW,338,0.0,0.0,88,0.00,,,0.01,WUHU216HW,2013-05-24 04:49:00,
2013-05-23 21:50:00,45.5,42.1,29.92,NNW,338,0.0,0.0,88,0.00,,,0.01,WUHU216HW,2013-05-24 04:50:00,
2013-05-23 21:51:00,45.5,42.1,29.92,NNW,338,0.0,0.0,88,0.00,,,0.01,WUHU216HW,2013-05-24 04:51:00,
2013-05-23 21:53:00,45.5,42.1,29.92,NNW,338,0.0,0.0,88,0.00,,,0.01,WUHU216HW,2013-05-24 04:53:00,
2013-05-23 21:54:00,45.5,42.1,29.92,NNW,338,0.0,0.0,88,0.00,,,0.01,WUHU216HW,2013-05-24 04:54:00,
2013-05-23 21:55:00,45.5,42.1,29.92,NNW,338,0.0,0.0,88,0.00,,,0.01,WUHU216HW,2013-05-24 04:55:00,
2013-05-23 21:56:00,45.5,42.1,29.92,NNW,338,0.0,0.0,88,0.00,,,0.01,WUHU216HW,2013-05-24 04:56:00,
2013-05-23 21:58:00,45.5,42.1,29.92,NNW,338,0.0,0.0,88,0.00,,,0.01,WUHU216HW,2013-05-24 04:58:00,
2013-05-23 21:59:00,45.5,42.1,29.92,NNW,338,0.0,0.0,88,0.00,,,0.01,WUHU216HW,2013-05-24 04:59:00,
2013-05-23 22:00:00,45.5,42.1,29.92,NNW,338,0.0,0.0,88,0.00,,,0.01,WUHU216HW,2013-05-24 05:00:00,
2013-05-23 22:01:00,45.3,42.2,29.92,NNW,338,0.0,0.0,89,0.00,,,0.01,WUHU216HW,2013-05-24 05:01:00,
2013-05-23 22:03:00,45.3,42.2,29.92,NNW,338,0.0,0.2,89,0.00,,,0.01,WUHU216HW,2013-05-24 05:03:00,
2013-05-23 22:04:00,45.3,41.9,29.92,NNW,338,0.0,0.2,88,0.00,,,0.01,WUHU216HW,2013-05-24 05:04:00,
2013-05-23 22:05:00,45.3,41.9,29.92,NNW,338,0.0,0.2,88,0.00,,,0.01,WUHU216HW,2013-05-24 05:05:00,
2013-05-23 22:06:00,45.3,42.2,29.92,NNW,338,0.0,0.2,89,0.00,,,0.01,WUHU216HW,2013-05-24 05:06:00,
2013-05-23 22:08:00,45.3,42.2,29.92,NNW,338,0.0,0.2,89,0.00,,,0.01,WUHU216HW,2013-05-24 05:08:00,
2013-05-23 22:09:00,45.3,42.2,29.92,NNW,338,0.0,0.2,89,0.00,,,0.01,WUHU216HW,2013-05-24 05:09:00,
2013-05-23 22:10:00,45.3,42.2,29.92,NNW,338,0.0,0.2,89,0.00,,,0.01,WUHU216HW,2013-05-24 05:10:00,
2013-05-23 22:11:00,45.3,42.2,29.92,NNW,338,0.0,0.2,89,0.00,,,0.01,WUHU216HW,2013-05-24 05:11:00,
2013-05-23 22:13:00,45.3,42.2,29.92,NNW,338,0.0,0.2,89,0.00,,,0.01,WUHU216HW,2013-05-24 05:13:00,
2013-05-23 22:14:00,45.3,42.2,29.92,NNW,338,0.0,0.2,89,0.00,,,0.01,WUHU216HW,2013-05-24 05:14:00,
2013-05-23 22:15:00,45.3,42.2,29.92,NNW,338,0.0,0.2,89,0.00,,,0.01,WUHU216HW,2013-05-24 05:15:00,
2013-05-23 22:16:00,45.1,42.0,29.92,NNW,338,0.0,0.2,89,0.00,,,0.01,WUHU216HW,2013-05-24 05:16:00,
2013-05-23 22:18:00,45.1,42.0,29.92,NNW,338,0.0,0.2,89,0.00,,,0.01,WUHU216HW,2013-05-24 05:18:00,
2013-05-23 22:19:00,45.1,42.0,29.92,NNW,338,0.0,0.0,89,0.00,,,0.01,WUHU216HW,2013-05-24 05:19:00,
2013-05-23 22:20:00,45.1,42.0,29.92,NNW,338,0.0,0.0,89,0.00,,,0.01,WUHU216HW,2013-05-24 05:20:00,
2013-05-23 22:21:00,45.1,42.0,29.92,NNW,338,0.0,0.0,89,0.00,,,0.01,WUHU216HW,2013-05-24 05:21:00,
2013-05-23 22:23:00,45.1,42.0,29.92,NNW,338,0.0,0.0,89,0.00,,,0.01,WUHU216HW,2013-05-24 05:23:00,
2013-05-23 22:24:00,45.1,42.0,29.92,NNW,338,0.0,0.0,89,0.00,,,0.01,WUHU216HW,2013-05-24 05:24:00,
2013-05-23 22:25:00,44.9,41.8,29.93,NNW,338,0.0,0.0,89,0.00,,,0.01,WUHU216HW,2013-05-24 05:25:00,
2013-05-23 22:26:00,45.1,42.0,29.92,NNW,338,0.4,0.4,89,0.00,,,0.01,WUHU216HW,2013-05-24 05:26:00,
2013-05-23 22:28:00,45.1,42.0,29.92,NNW,338,0.4,0.4,89,0.00,,,0.01,WUHU216HW,2013-05-24 05:28:00,
2013-05-23 22:29:00,45.1,42.0,29.92,NNW,338,0.0,0.4,89,0.00,,,0.01,WUHU216HW,2013-05-24 05:29:00,
2013-05-23 22:30:00,44.9,41.8,29.92,NNW,338,0.0,0.4,89,0.00,,,0.01,WUHU216HW,2013-05-24 05:30:00,
2013-05-23 22:31:00,44.9,41.8,29.92,NNW,338,0.2,0.4,89,0.00,,,0.01,WUHU216HW,2013-05-24 05:31:00,
2013-05-23 22:33:00,44.9,41.8,29.92,NNW,338,0.2,0.4,89,0.00,,,0.01,WUHU216HW,2013-05-24 05:33:00,
2013-05-23 22:34:00,44.9,41.8,29.92,NNW,338,0.0,0.4,89,0.00,,,0.01,WUHU216HW,2013-05-24 05:34:00,
2013-05-23 22:35:00,44.9,41.8,29.92,NNW,338,0.0,0.4,89,0.00,,,0.01,WUHU216HW,2013-05-24 05:35:00,
2013-05-23 22:36:00,44.9,41.8,29.92,NNW,338,0.4,0.4,89,0.00,,,0.01,WUHU216HW,2013-05-24 05:36:00,
2013-05-23 22:37:00,44.9,41.8,29.92,NNW,338,0.4,0.4,89,0.00,,,0.01,WUHU216HW,2013-05-24 05:37:00,
2013-05-23 22:39:00,44.9,41.8,29.92,NNW,338,0.2,0.4,89,0.00,,,0.01,WUHU216HW,2013-05-24 05:39:00,
2013-05-23 22:40:00,44.9,41.8,29.92,NNW,338,0.2,0.4,89,0.00,,,0.01,WUHU216HW,2013-05-24 05:40:00,
2013-05-23 22:41:00,44.9,41.8,29.92,NNW,338,0.2,0.4,89,0.00,,,0.01,WUHU216HW,2013-05-24 05:41:00,
2013-05-23 22:42:00,44.9,41.8,29.92,NNW,338,0.0,0.4,89,0.00,,,0.01,WUHU216HW,2013-05-24 05:42:00,
2013-05-23 22:44:00,44.9,41.8,29.92,NNW,338,0.0,0.4,89,0.00,,,0.01,WUHU216HW,2013-05-24 05:44:00,
2013-05-23 22:45:00,44.9,41.8,29.92,NNW,338,0.0,0.4,89,0.00,,,0.01,WUHU216HW,2013-05-24 05:45:00,
2013-05-23 22:46:00,44.9,41.8,29.92,NNW,338,0.0,0.4,89,0.00,,,0.01,WUHU216HW,2013-05-24 05:46:00,
2013-05-23 22:47:00,44.9,41.8,29.92,NNW,338,0.0,0.4,89,0.00,,,0.01,WUHU216HW,2013-05-24 05:47:00,
2013-05-23 22:49:00,44.9,41.8,29.92,NNW,338,0.0,0.4,89,0.00,,,0.01,WUHU216HW,2013-05-24 05:49:00,
2013-05-23 22:50:00,44.9,41.8,29.92,NNW,338,0.0,0.4,89,0.00,,,0.01,WUHU216HW,2013-05-24 05:50:00,
2013-05-23 22:51:00,44.9,41.8,29.92,NNW,338,0.0,0.2,89,0.00,,,0.01,WUHU216HW,2013-05-24 05:51:00,
2013-05-23 22:52:00,44.9,42.1,29.92,NNW,338,0.0,0.0,90,0.00,,,0.01,WUHU216HW,2013-05-24 05:52:00,
2013-05-23 22:54:00,44.8,42.0,29.92,NNW,338,0.0,0.0,90,0.00,,,0.01,WUHU216HW,2013-05-24 05:54:00,
2013-05-23 22:55:00,44.9,42.1,29.92,NNW,338,0.0,0.0,90,0.00,,,0.01,WUHU216HW,2013-05-24 05:55:00,
2013-05-23 22:56:00,44.8,42.0,29.92,NNW,338,0.0,0.0,90,0.00,,,0.01,WUHU216HW,2013-05-24 05:56:00,
2013-05-23 22:57:00,44.9,42.1,29.92,NNW,338,0.0,0.0,90,0.00,,,0.01,WUHU216HW,2013-05-24 05:57:00,
2013-05-23 22:59:00,44.8,42.0,29.92,NNW,338,0.2,0.2,90,0.00,,,0.01,WUHU216HW,2013-05-24 05:59:00,
2013-05-23 23:00:00,44.8,42.0,29.92,NNW,338,0.4,0.4,90,0.00,,,0.01,WUHU216HW,2013-05-24 06:00:00,
2013-05-23 23:01:00,44.8,42.0,29.92,NNW,338,0.2,0.4,90,0.00,,,0.01,WUHU216HW,2013-05-24 06:01:00,
2013-05-23 23:02:00,44.8,42.0,29.92,NNW,338,0.0,0.4,90,0.00,,,0.01,WUHU216HW,2013-05-24 06:02:00,
2013-05-23 23:04:00,44.8,42.0,29.92,NNW,338,0.0,0.4,90,0.00,,,0.01,WUHU216HW,2013-05-24 06:04:00,
2013-05-23 23:05:00,44.8,42.0,29.92,NNW,338,0.0,0.4,90,0.00,,,0.01,WUHU216HW,2013-05-24 06:05:00,
2013-05-23 23:06:00,44.8,42.0,29.92,NNW,338,0.0,0.4,90,0.00,,,0.01,WUHU216HW,2013-05-24 06:06:00,
2013-05-23 23:07:00,44.8,42.0,29.92,NNW,338,0.0,0.4,90,0.00,,,0.01,WUHU216HW,2013-05-24 06:07:00,
2013-05-23 23:09:00,44.8,42.0,29.92,NNW,338,0.0,0.4,90,0.00,,,0.01,WUHU216HW,2013-05-24 06:09:00,
2013-05-23 23:10:00,44.8,42.0,29.92,NNW,338,0.0,0.4,90,0.00,,,0.01,WUHU216HW,2013-05-24 06:10:00,
2013-05-23 23:11:00,44.8,42.0,29.92,NNW,338,0.0,0.2,90,0.00,,,0.01,WUHU216HW,2013-05-24 06:11:00,
2013-05-23 23:12:00,44.8,42.0,29.92,NNW,338,0.0,0.0,90,0.00,,,0.01,WUHU216HW,2013-05-24 06:12:00,
2013-05-23 23:14:00,44.8,42.0,29.92,NNW,338,0.0,0.0,90,0.00,,,0.01,WUHU216HW,2013-05-24 06:14:00,
2013-05-23 23:15:00,44.8,42.0,29.92,NNW,338,0.2,0.2,90,0.00,,,0.01,WUHU216HW,2013-05-24 06:15:00,
2013-05-23 23:16:00,44.8,42.0,29.92,North,0,0.4,0.4,90,0.00,,,0.01,WUHU216HW,2013-05-24 06:16:00,
2013-05-23 23:17:00,44.8,42.0,29.92,North,0,0.4,0.4,90,0.00,,,0.01,WUHU216HW,2013-05-24 06:17:00,
2013-05-23 23:19:00,44.8,42.0,29.92,North,0,0.2,0.4,90,0.00,,,0.01,WUHU216HW,2013-05-24 06:19:00,
2013-05-23 23:20:00,44.8,42.0,29.91,North,0,0.4,0.4,90,0.00,,,0.01,WUHU216HW,2013-05-24 06:20:00,
2013-05-23 23:21:00,44.8,42.0,29.92,North,0,0.0,0.4,90,0.00,,,0.01,WUHU216HW,2013-05-24 06:21:00,
2013-05-23 23:22:00,44.9,42.1,29.92,North,0,0.2,0.4,90,0.00,,,0.01,WUHU216HW,2013-05-24 06:22:00,
2013-05-23 23:24:00,44.9,42.1,29.92,North,0,0.0,0.4,90,0.00,,,0.01,WUHU216HW,2013-05-24 06:24:00,
2013-05-23 23:25:00,44.9,42.1,29.91,North,0,0.0,0.4,90,0.00,,,0.01,WUHU216HW,2013-05-24 06:25:00,
2013-05-23 23:26:00,44.9,42.1,29.92,NW,315,0.7,0.7,90,0.00,,,0.01,WUHU216HW,2013-05-24 06:26:00,
2013-05-23 23:27:00,44.9,42.1,29.92,NNW,338,0.0,0.7,90,0.00,,,0.01,WUHU216HW,2013-05-24 06:27:00,
2013-05-23 23:28:00,44.9,42.1,29.91,NNW,338,0.4,0.7,90,0.00,,,0.01,WUHU216HW,2013-05-24 06:28:00,
2013-05-23 23:30:00,44.9,42.1,29.92,NNW,338,0.7,0.7,90,0.00,,,0.01,WUHU216HW,2013-05-24 06:30:00,
2013-05-23 23:31:00,44.9,42.1,29.92,NNW,338,0.0,0.7,90,0.00,,,0.01,WUHU216HW,2013-05-24 06:31:00,
2013-05-23 23:32:00,44.9,42.1,29.92,NNW,338,0.0,0.7,90,0.00,,,0.01,WUHU216HW,2013-05-24 06:32:00,
2013-05-23 23:33:00,44.9,42.1,29.92,NNW,338,0.2,0.7,90,0.00,,,0.01,WUHU216HW,2013-05-24 06:33:00,
2013-05-23 23:35:00,44.9,42.1,29.92,NNW,338,0.0,0.7,90,0.00,,,0.01,WUHU216HW,2013-05-24 06:35:00,
2013-05-23 23:36:00,44.8,42.0,29.92,NNW,338,0.0,0.7,90,0.00,,,0.01,WUHU216HW,2013-05-24 06:36:00,
2013-05-23 23:37:00,44.9,42.1,29.92,NNW,338,0.0,0.7,90,0.00,,,0.01,WUHU216HW,2013-05-24 06:37:00,
2013-05-23 23:38:00,44.8,42.0,29.92,NNW,338,0.0,0.7,90,0.00,,,0.01,WUHU216HW,2013-05-24 06:38:00,
2013-05-23 23:40:00,44.8,42.0,29.92,North,0,0.4,0.7,90,0.00,,,0.01,WUHU216HW,2013-05-24 06:40:00,
2013-05-23 23:41:00,44.8,42.0,29.92,North,0,0.4,0.4,90,0.00,,,0.01,WUHU216HW,2013-05-24 06:41:00,
2013-05-23 23:42:00,44.8,42.0,29.92,North,0,0.4,0.4,90,0.00,,,0.01,WUHU216HW,2013-05-24 06:42:00,
2013-05-23 23:43:00,44.8,42.0,29.92,North,0,0.0,0.4,90,0.00,,,0.01,WUHU216HW,2013-05-24 06:43:00,
2013-05-23 23:45:00,44.8,42.0,29.92,North,0,0.0,0.4,90,0.00,,,0.01,WUHU216HW,2013-05-24 06:45:00,
2013-05-23 23:46:00,44.8,42.0,29.92,North,0,0.0,0.4,90,0.00,,,0.01,WUHU216HW,2013-05-24 06:46:00,
2013-05-23 23:47:00,44.6,41.8,29.92,North,0,0.0,0.4,90,0.00,,,0.01,WUHU216HW,2013-05-24 06:47:00,
2013-05-23 23:48:00,44.6,41.8,29.92,North,0,0.0,0.4,90,0.00,,,0.01,WUHU216HW,2013-05-24 06:48:00,
2013-05-23 23:50:00,44.6,41.8,29.92,North,0,0.0,0.4,90,0.00,,,0.01,WUHU216HW,2013-05-24 06:50:00,
2013-05-23 23:51:00,44.6,41.8,29.92,North,0,0.0,0.4,90,0.00,,,0.01,WUHU216HW,2013-05-24 06:51:00,
2013-05-23 23:52:00,44.6,41.8,29.92,North,0,0.0,0.4,90,0.00,,,0.01,WUHU216HW,2013-05-24 06:52:00,
2013-05-23 23:53:00,44.6,41.8,29.92,North,0,0.0,0.4,90,0.00,,,0.01,WUHU216HW,2013-05-24 06:53:00,
2013-05-23 23:55:00,44.6,41.8,29.92,North,0,0.0,0.4,90,0.00,,,0.01,WUHU216HW,2013-05-24 06:55:00,
2013-05-23 23:56:00,44.6,41.8,29.92,North,0,0.0,0.4,90,0.00,,,0.01,WUHU216HW,2013-05-24 06:56:00,
2013-05-23 23:57:00,44.6,41.8,29.92,North,0,0.0,0.2,90,0.00,,,0.01,WUHU216HW,2013-05-24 06:57:00,
2013-05-23 23:58:00,44.6,41.8,29.92,North,0,0.0,0.2,90,0.00,,,0.01,WUHU216HW,2013-05-24 06:58:00,